Time,TemperatureF,DewpointF,PressureIn,WindDirection,WindDirectionDegrees,WindSpeedMPH,WindSpeedGustMPH,Humidity,HourlyPrecipIn,Conditions,Clouds,dailyrainin,SoftwareType,DateUTC
2013-01-17 00:00:00,34.7,29.5,30.11,WSW,257,1.0,1.0,81,0.00,,,0.00,Wunderground v.1.15,2013-01-17 06:00:00,
2013-01-17 00:01:00,34.7,29.5,30.11,West,260,1.0,1.0,81,0.00,,,0.00,Wunderground v.1.15,2013-01-17 06:01:00,
2013-01-17 00:02:00,34.7,29.5,30.11,West,269,1.0,1.0,81,0.00,,,0.00,Wunderground v.1.15,2013-01-17 06:02:00,
2013-01-17 00:06:00,34.7,29.5,30.11,WSW,248,1.0,2.0,81,0.00,,,0.00,Wunderground v.1.15,2013-01-17 06:06:00,
2013-01-17 00:07:00,34.7,29.8,30.11,West,278,1.0,2.0,82,0.00,,,0.00,Wunderground v.1.15,2013-01-17 06:07:00,
2013-01-17 00:09:00,34.7,29.8,30.11,WNW,297,0.0,2.0,82,0.00,,,0.00,Wunderground v.1.15,2013-01-17 06:09:00,
2013-01-17 00:10:00,34.7,29.8,30.11,WNW,285,0.0,0.0,82,0.00,,,0.00,Wunderground v.1.15,2013-01-17 06:10:00,
2013-01-17 00:14:00,34.7,29.8,30.11,WNW,285,0.0,0.0,82,0.00,,,0.00,Wunderground v.1.15,2013-01-17 06:14:00,
2013-01-17 00:15:00,34.7,29.8,30.11,WNW,290,0.0,0.0,82,0.00,,,0.00,Wunderground v.1.15,2013-01-17 06:15:00,
2013-01-17 00:16:00,34.7,29.8,30.11,West,265,0.0,1.0,82,0.00,,,0.00,Wunderground v.1.15,2013-01-17 06:16:00,
2013-01-17 00:18:00,34.7,29.8,30.11,West,274,0.0,1.0,82,0.00,,,0.00,Wunderground v.1.15,2013-01-17 06:18:00,
2013-01-17 00:19:00,34.7,29.8,30.11,West,281,0.0,1.0,82,0.00,,,0.00,Wunderground v.1.15,2013-01-17 06:19:00,
2013-01-17 00:22:00,34.6,29.7,30.11,WNW,284,0.0,1.0,82,0.00,,,0.00,Wunderground v.1.15,2013-01-17 06:22:00,
2013-01-17 00:24:00,34.5,29.6,30.12,West,278,0.0,1.0,82,0.00,,,0.00,Wunderground v.1.15,2013-01-17 06:24:00,
2013-01-17 00:25:00,34.5,29.6,30.12,WSW,250,0.0,1.0,82,0.00,,,0.00,Wunderground v.1.15,2013-01-17 06:25:00,
2013-01-17 00:27:00,34.4,29.5,30.12,WSW,250,0.0,1.0,82,0.00,,,0.00,Wunderground v.1.15,2013-01-17 06:27:00,
2013-01-17 00:31:00,34.3,29.7,30.12,NW,315,0.0,3.0,83,0.00,,,0.00,Wunderground v.1.15,2013-01-17 06:31:00,
2013-01-17 00:35:00,34.0,29.4,30.13,West,269,0.0,3.0,83,0.00,,,0.00,Wunderground v.1.15,2013-01-17 06:35:00,
2013-01-17 00:36:00,34.0,29.4,30.13,West,278,0.0,3.0,83,0.00,,,0.00,Wunderground v.1.15,2013-01-17 06:36:00,
2013-01-17 00:40:00,33.8,29.2,30.13,NW,315,0.0,0.0,83,0.00,,,0.00,Wunderground v.1.15,2013-01-17 06:40:00,
2013-01-17 00:41:00,33.7,29.1,30.13,NW,314,0.0,0.0,83,0.00,,,0.00,Wunderground v.1.15,2013-01-17 06:41:00,
2013-01-17 00:45:00,33.5,29.2,30.13,NW,314,0.0,0.0,84,0.00,,,0.00,Wunderground v.1.15,2013-01-17 06:45:00,
2013-01-17 00:46:00,33.4,29.1,30.13,NW,315,0.0,0.0,84,0.00,,,0.00,Wunderground v.1.15,2013-01-17 06:46:00,
2013-01-17 00:47:00,33.3,29.0,30.13,NW,315,0.0,0.0,84,0.00,,,0.00,Wunderground v.1.15,2013-01-17 06:47:00,
2013-01-17 00:49:00,33.1,28.8,30.13,NW,322,0.0,0.0,84,0.00,,,0.00,Wunderground v.1.15,2013-01-17 06:49:00,
2013-01-17 00:50:00,33.0,28.7,30.13,NW,322,0.0,0.0,84,0.00,,,0.00,Wunderground v.1.15,2013-01-17 06:50:00,
2013-01-17 00:51:00,32.9,28.6,30.14,NW,322,0.0,0.0,84,0.00,,,0.00,Wunderground v.1.15,2013-01-17 06:51:00,
2013-01-17 00:55:00,32.5,28.5,30.14,NW,325,0.0,0.0,85,0.00,,,0.00,Wunderground v.1.15,2013-01-17 06:55:00,
2013-01-17 00:57:00,32.3,28.3,30.14,NW,324,0.0,0.0,85,0.00,,,0.00,Wunderground v.1.15,2013-01-17 06:57:00,
2013-01-17 00:58:00,32.3,28.3,30.14,NW,325,0.0,0.0,85,0.00,,,0.00,Wunderground v.1.15,2013-01-17 06:58:00,
2013-01-17 01:01:00,32.0,28.0,30.14,NW,325,0.0,0.0,85,0.00,,,0.00,Wunderground v.1.15,2013-01-17 07:01:00,
2013-01-17 01:05:00,31.7,28.0,30.14,NW,325,0.0,0.0,86,0.00,,,0.00,Wunderground v.1.15,2013-01-17 07:05:00,
2013-01-17 01:06:00,31.6,27.9,30.14,NW,325,0.0,0.0,86,0.00,,,0.00,Wunderground v.1.15,2013-01-17 07:06:00,
2013-01-17 01:10:00,31.5,28.1,30.15,NW,325,0.0,0.0,87,0.00,,,0.00,Wunderground v.1.15,2013-01-17 07:10:00,
2013-01-17 01:11:00,31.4,28.0,30.15,NW,324,0.0,0.0,87,0.00,,,0.00,Wunderground v.1.15,2013-01-17 07:11:00,
2013-01-17 01:12:00,31.4,28.0,30.15,NW,325,0.0,0.0,87,0.00,,,0.00,Wunderground v.1.15,2013-01-17 07:12:00,
2013-01-17 01:13:00,31.4,28.0,30.15,NNW,329,0.0,0.0,87,0.00,,,0.00,Wunderground v.1.15,2013-01-17 07:13:00,
2013-01-17 01:18:00,31.1,27.7,30.15,NNW,330,0.0,0.0,87,0.00,,,0.00,Wunderground v.1.15,2013-01-17 07:18:00,
2013-01-17 01:19:00,31.1,27.7,30.16,NNW,330,0.0,0.0,87,0.00,,,0.00,Wunderground v.1.15,2013-01-17 07:19:00,
2013-01-17 01:20:00,31.1,28.0,30.16,NNW,330,0.0,0.0,88,0.00,,,0.00,Wunderground v.1.15,2013-01-17 07:20:00,
2013-01-17 01:21:00,31.0,27.9,30.16,NNW,330,0.0,0.0,88,0.00,,,0.00,Wunderground v.1.15,2013-01-17 07:21:00,
2013-01-17 01:26:00,31.2,28.3,30.16,NW,322,0.0,0.0,89,0.00,,,0.00,Wunderground v.1.15,2013-01-17 07:26:00,
2013-01-17 01:29:00,31.6,29.0,30.16,NW,322,0.0,0.0,90,0.00,,,0.00,Wunderground v.1.15,2013-01-17 07:29:00,
2013-01-17 01:30:00,31.6,28.7,30.16,NW,322,0.0,0.0,89,0.00,,,0.00,Wunderground v.1.15,2013-01-17 07:30:00,
2013-01-17 01:31:00,31.7,28.8,30.16,NW,323,0.0,0.0,89,0.00,,,0.00,Wunderground v.1.15,2013-01-17 07:31:00,
2013-01-17 01:32:00,31.7,28.8,30.16,NW,323,0.0,0.0,89,0.00,,,0.00,Wunderground v.1.15,2013-01-17 07:32:00,
2013-01-17 01:34:00,31.7,28.8,30.16,NW,316,0.0,0.0,89,0.00,,,0.00,Wunderground v.1.15,2013-01-17 07:34:00,
2013-01-17 01:36:00,31.7,28.8,30.16,NNW,330,0.0,0.0,89,0.00,,,0.00,Wunderground v.1.15,2013-01-17 07:36:00,
2013-01-17 01:37:00,31.6,28.7,30.16,NW,322,0.0,0.0,89,0.00,,,0.00,Wunderground v.1.15,2013-01-17 07:37:00,
2013-01-17 01:38:00,31.6,28.7,30.16,NW,321,0.0,0.0,89,0.00,,,0.00,Wunderground v.1.15,2013-01-17 07:38:00,
2013-01-17 01:41:00,31.5,28.6,30.16,NNW,336,0.0,1.0,89,0.00,,,0.00,Wunderground v.1.15,2013-01-17 07:41:00,
2013-01-17 01:43:00,31.6,28.7,30.16,North,353,0.0,1.0,89,0.00,,,0.00,Wunderground v.1.15,2013-01-17 07:43:00,
2013-01-17 01:45:00,31.7,29.1,30.16,North,353,0.0,1.0,90,0.00,,,0.00,Wunderground v.1.15,2013-01-17 07:45:00,
2013-01-17 01:46:00,31.8,29.2,30.16,NNW,334,0.0,1.0,90,0.00,,,0.00,Wunderground v.1.15,2013-01-17 07:46:00,
2013-01-17 01:48:00,32.0,29.4,30.17,NNW,345,0.0,1.0,90,0.00,,,0.00,Wunderground v.1.15,2013-01-17 07:48:00,
2013-01-17 01:49:00,32.0,29.4,30.17,NNW,339,0.0,1.0,90,0.00,,,0.00,Wunderground v.1.15,2013-01-17 07:49:00,
2013-01-17 01:50:00,32.1,29.5,30.17,NNW,332,0.0,0.0,90,0.00,,,0.00,Wunderground v.1.15,2013-01-17 07:50:00,
2013-01-17 01:53:00,32.3,29.7,30.17,NNW,340,0.0,1.0,90,0.00,,,0.00,Wunderground v.1.15,2013-01-17 07:53:00,
2013-01-17 01:55:00,32.4,29.8,30.17,NNW,336,0.0,4.0,90,0.00,,,0.00,Wunderground v.1.15,2013-01-17 07:55:00,
2013-01-17 01:57:00,32.6,30.0,30.17,NNW,329,0.0,4.0,90,0.00,,,0.00,Wunderground v.1.15,2013-01-17 07:57:00,
2013-01-17 01:58:00,32.6,30.0,30.17,North,353,0.0,4.0,90,0.00,,,0.00,Wunderground v.1.15,2013-01-17 07:58:00,
2013-01-17 01:59:00,32.6,30.0,30.17,NNW,334,1.0,4.0,90,0.00,,,0.00,Wunderground v.1.15,2013-01-17 07:59:00,
2013-01-17 02:03:00,32.7,30.1,30.17,NNW,345,1.0,2.0,90,0.00,,,0.00,Wunderground v.1.15,2013-01-17 08:03:00,
2013-01-17 02:04:00,32.7,30.1,30.17,NNW,334,1.0,4.0,90,0.00,,,0.00,Wunderground v.1.15,2013-01-17 08:04:00,
2013-01-17 02:05:00,32.8,30.5,30.17,NNW,338,1.0,4.0,91,0.00,,,0.00,Wunderground v.1.15,2013-01-17 08:05:00,
2013-01-17 02:07:00,32.9,30.6,30.17,North,353,1.0,4.0,91,0.00,,,0.00,Wunderground v.1.15,2013-01-17 08:07:00,
2013-01-17 02:09:00,33.0,30.7,30.17,NNW,342,1.0,4.0,91,0.00,,,0.00,Wunderground v.1.15,2013-01-17 08:09:00,
2013-01-17 02:10:00,33.0,30.4,30.17,NNW,340,1.0,1.0,90,0.00,,,0.00,Wunderground v.1.15,2013-01-17 08:10:00,
2013-01-17 02:11:00,33.0,30.4,30.17,North,352,1.0,1.0,90,0.00,,,0.00,Wunderground v.1.15,2013-01-17 08:11:00,
2013-01-17 02:15:00,33.0,30.4,30.17,NNW,340,1.0,2.0,90,0.00,,,0.00,Wunderground v.1.15,2013-01-17 08:15:00,
2013-01-17 02:17:00,33.0,30.4,30.17,NNW,336,1.0,2.0,90,0.00,,,0.00,Wunderground v.1.15,2013-01-17 08:17:00,
2013-01-17 02:19:00,33.0,30.4,30.17,North,349,1.0,2.0,90,0.00,,,0.00,Wunderground v.1.15,2013-01-17 08:19:00,
2013-01-17 02:20:00,32.9,30.3,30.17,NNW,332,1.0,1.0,90,0.00,,,0.00,Wunderground v.1.15,2013-01-17 08:20:00,
2013-01-17 02:24:00,32.8,30.2,30.18,NNW,346,1.0,1.0,90,0.00,,,0.00,Wunderground v.1.15,2013-01-17 08:24:00,
2013-01-17 02:27:00,32.7,30.1,30.17,NNW,345,0.0,1.0,90,0.00,,,0.00,Wunderground v.1.15,2013-01-17 08:27:00,
2013-01-17 02:28:00,32.6,30.0,30.17,NNW,342,0.0,1.0,90,0.00,,,0.00,Wunderground v.1.15,2013-01-17 08:28:00,
2013-01-17 02:30:00,32.6,30.0,30.17,NNW,346,0.0,0.0,90,0.00,,,0.00,Wunderground v.1.15,2013-01-17 08:30:00,
2013-01-17 02:32:00,32.5,30.2,30.18,NNW,347,0.0,0.0,91,0.00,,,0.00,Wunderground v.1.15,2013-01-17 08:32:00,
2013-01-17 02:33:00,32.4,29.8,30.18,North,349,0.0,0.0,90,0.00,,,0.00,Wunderground v.1.15,2013-01-17 08:33:00,
2013-01-17 02:35:00,32.3,29.7,30.18,NNW,345,0.0,0.0,90,0.00,,,0.00,Wunderground v.1.15,2013-01-17 08:35:00,
2013-01-17 02:37:00,32.1,29.5,30.18,North,354,0.0,0.0,90,0.00,,,0.00,Wunderground v.1.15,2013-01-17 08:37:00,
2013-01-17 02:39:00,32.0,29.4,30.18,NNW,346,0.0,0.0,90,0.00,,,0.00,Wunderground v.1.15,2013-01-17 08:39:00,
2013-01-17 02:40:00,31.9,29.3,30.18,NNW,345,0.0,0.0,90,0.00,,,0.00,Wunderground v.1.15,2013-01-17 08:40:00,
2013-01-17 02:42:00,31.8,29.5,30.18,NNW,347,0.0,0.0,91,0.00,,,0.00,Wunderground v.1.15,2013-01-17 08:42:00,
2013-01-17 02:45:00,31.7,29.4,30.18,NNW,340,0.0,0.0,91,0.00,,,0.00,Wunderground v.1.15,2013-01-17 08:45:00,
2013-01-17 02:46:00,31.7,29.4,30.19,NNW,342,0.0,0.0,91,0.00,,,0.00,Wunderground v.1.15,2013-01-17 08:46:00,
2013-01-17 02:47:00,31.6,29.3,30.19,NNW,340,0.0,0.0,91,0.00,,,0.00,Wunderground v.1.15,2013-01-17 08:47:00,
2013-01-17 02:50:00,31.4,29.1,30.19,NNW,340,0.0,0.0,91,0.00,,,0.00,Wunderground v.1.15,2013-01-17 08:50:00,
2013-01-17 02:51:00,31.3,29.0,30.19,NNW,342,0.0,0.0,91,0.00,,,0.00,Wunderground v.1.15,2013-01-17 08:51:00,
2013-01-17 02:53:00,31.2,28.9,30.19,NNW,328,0.0,0.0,91,0.00,,,0.00,Wunderground v.1.15,2013-01-17 08:53:00,
2013-01-17 02:56:00,31.0,28.7,30.19,NNW,327,0.0,0.0,91,0.00,,,0.00,Wunderground v.1.15,2013-01-17 08:56:00,
2013-01-17 02:59:00,30.9,28.6,30.19,NW,326,0.0,0.0,91,0.00,,,0.00,Wunderground v.1.15,2013-01-17 08:59:00,
2013-01-17 03:01:00,30.9,28.9,30.20,NW,316,0.0,0.0,92,0.00,,,0.00,Wunderground v.1.15,2013-01-17 09:01:00,
2013-01-17 03:03:00,30.8,28.5,30.20,NW,318,0.0,0.0,91,0.00,,,0.00,Wunderground v.1.15,2013-01-17 09:03:00,
2013-01-17 03:08:00,30.4,28.1,30.20,NNW,338,0.0,0.0,91,0.00,,,0.00,Wunderground v.1.15,2013-01-17 09:08:00,
2013-01-17 03:09:00,30.3,28.0,30.20,NNW,338,0.0,0.0,91,0.00,,,0.00,Wunderground v.1.15,2013-01-17 09:09:00,
2013-01-17 03:11:00,30.2,28.2,30.20,NNW,338,0.0,0.0,92,0.00,,,0.00,Wunderground v.1.15,2013-01-17 09:11:00,
2013-01-17 03:13:00,30.2,28.2,30.20,NNW,338,0.0,0.0,92,0.00,,,0.00,Wunderground v.1.15,2013-01-17 09:13:00,
2013-01-17 03:16:00,30.2,28.2,30.20,NW,304,0.0,0.0,92,0.00,,,0.00,Wunderground v.1.15,2013-01-17 09:16:00,
2013-01-17 03:17:00,30.2,28.2,30.20,NW,304,0.0,0.0,92,0.00,,,0.00,Wunderground v.1.15,2013-01-17 09:17:00,
2013-01-17 03:18:00,30.2,28.2,30.20,North,349,0.0,0.0,92,0.00,,,0.00,Wunderground v.1.15,2013-01-17 09:18:00,
2013-01-17 03:21:00,30.2,28.2,30.20,NW,318,0.0,0.0,92,0.00,,,0.00,Wunderground v.1.15,2013-01-17 09:21:00,
2013-01-17 03:23:00,30.2,28.4,30.20,NNW,331,0.0,0.0,93,0.00,,,0.00,Wunderground v.1.15,2013-01-17 09:23:00,
2013-01-17 03:26:00,30.1,28.1,30.21,NNW,338,0.0,0.0,92,0.00,,,0.00,Wunderground v.1.15,2013-01-17 09:26:00,
2013-01-17 03:27:00,30.0,28.0,30.21,NNW,345,0.0,0.0,92,0.00,,,0.00,Wunderground v.1.15,2013-01-17 09:27:00,
2013-01-17 03:29:00,30.0,28.2,30.21,NNW,336,0.0,0.0,93,0.00,,,0.00,Wunderground v.1.15,2013-01-17 09:29:00,
2013-01-17 03:31:00,30.0,28.2,30.21,NNW,336,0.0,0.0,93,0.00,,,0.00,Wunderground v.1.15,2013-01-17 09:31:00,
2013-01-17 03:32:00,30.0,28.2,30.21,NNW,329,0.0,0.0,93,0.00,,,0.00,Wunderground v.1.15,2013-01-17 09:32:00,
2013-01-17 03:33:00,30.0,28.2,30.21,NNW,328,0.0,0.0,93,0.00,,,0.00,Wunderground v.1.15,2013-01-17 09:33:00,
2013-01-17 03:35:00,30.0,28.2,30.21,NNW,328,0.0,0.0,93,0.00,,,0.00,Wunderground v.1.15,2013-01-17 09:35:00,
2013-01-17 03:36:00,30.0,28.2,30.21,NNW,332,0.0,0.0,93,0.00,,,0.00,Wunderground v.1.15,2013-01-17 09:36:00,
2013-01-17 03:38:00,30.0,28.2,30.21,NNW,338,0.0,0.0,93,0.00,,,0.00,Wunderground v.1.15,2013-01-17 09:38:00,
2013-01-17 03:41:00,30.0,28.2,30.21,NNW,331,0.0,0.0,93,0.00,,,0.00,Wunderground v.1.15,2013-01-17 09:41:00,
2013-01-17 03:43:00,30.1,28.3,30.21,NW,325,0.0,0.0,93,0.00,,,0.00,Wunderground v.1.15,2013-01-17 09:43:00,
2013-01-17 03:45:00,30.1,28.3,30.21,NNW,339,0.0,0.0,93,0.00,,,0.00,Wunderground v.1.15,2013-01-17 09:45:00,
2013-01-17 03:48:00,30.1,28.3,30.21,NW,314,0.0,0.0,93,0.00,,,0.00,Wunderground v.1.15,2013-01-17 09:48:00,
2013-01-17 03:49:00,30.1,28.3,30.21,NNW,330,0.0,0.0,93,0.00,,,0.00,Wunderground v.1.15,2013-01-17 09:49:00,
2013-01-17 03:51:00,30.1,28.3,30.21,WNW,302,0.0,0.0,93,0.00,,,0.00,Wunderground v.1.15,2013-01-17 09:51:00,
2013-01-17 03:52:00,30.2,28.4,30.22,WNW,302,0.0,0.0,93,0.00,,,0.00,Wunderground v.1.15,2013-01-17 09:52:00,
2013-01-17 03:54:00,30.4,28.6,30.22,NW,305,0.0,0.0,93,0.00,,,0.00,Wunderground v.1.15,2013-01-17 09:54:00,
2013-01-17 03:55:00,30.4,28.6,30.22,NW,305,0.0,0.0,93,0.00,,,0.00,Wunderground v.1.15,2013-01-17 09:55:00,
2013-01-17 03:56:00,30.4,28.6,30.22,NW,304,0.0,0.0,93,0.00,,,0.00,Wunderground v.1.15,2013-01-17 09:56:00,
2013-01-17 03:58:00,30.4,28.6,30.22,NNW,338,0.0,0.0,93,0.00,,,0.00,Wunderground v.1.15,2013-01-17 09:58:00,
2013-01-17 04:00:00,30.4,28.6,30.22,North,349,0.0,0.0,93,0.00,,,0.00,Wunderground v.1.15,2013-01-17 10:00:00,
2013-01-17 04:03:00,30.6,28.8,30.22,NNW,335,0.0,0.0,93,0.00,,,0.00,Wunderground v.1.15,2013-01-17 10:03:00,
2013-01-17 04:04:00,30.7,28.9,30.22,NNW,331,0.0,0.0,93,0.00,,,0.00,Wunderground v.1.15,2013-01-17 10:04:00,
2013-01-17 04:05:00,30.8,29.0,30.22,NNW,342,0.0,0.0,93,0.00,,,0.00,Wunderground v.1.15,2013-01-17 10:05:00,
2013-01-17 04:06:00,30.9,29.1,30.22,NW,321,0.0,0.0,93,0.00,,,0.00,Wunderground v.1.15,2013-01-17 10:06:00,
2013-01-17 04:11:00,31.3,29.5,30.22,NW,314,0.0,0.0,93,0.00,,,0.00,Wunderground v.1.15,2013-01-17 10:11:00,
2013-01-17 04:12:00,31.4,29.6,30.22,NW,318,0.0,0.0,93,0.00,,,0.00,Wunderground v.1.15,2013-01-17 10:12:00,
2013-01-17 04:14:00,31.5,29.7,30.22,NNW,340,0.0,0.0,93,0.00,,,0.00,Wunderground v.1.15,2013-01-17 10:14:00,
2013-01-17 04:16:00,31.6,29.8,30.22,NNW,346,0.0,0.0,93,0.00,,,0.00,Wunderground v.1.15,2013-01-17 10:16:00,
2013-01-17 04:17:00,31.7,29.6,30.22,NNW,345,0.0,0.0,92,0.00,,,0.00,Wunderground v.1.15,2013-01-17 10:17:00,
2013-01-17 04:18:00,31.8,29.7,30.23,NNW,334,0.0,0.0,92,0.00,,,0.00,Wunderground v.1.15,2013-01-17 10:18:00,
2013-01-17 04:20:00,31.8,29.7,30.23,North,349,0.0,0.0,92,0.00,,,0.00,Wunderground v.1.15,2013-01-17 10:20:00,
2013-01-17 04:22:00,32.0,29.9,30.23,NNW,342,0.0,0.0,92,0.00,,,0.00,Wunderground v.1.15,2013-01-17 10:22:00,
2013-01-17 04:24:00,32.1,30.0,30.23,NNW,345,0.0,0.0,92,0.00,,,0.00,Wunderground v.1.15,2013-01-17 10:24:00,
2013-01-17 04:25:00,32.2,29.9,30.23,NNW,333,0.0,0.0,91,0.00,,,0.00,Wunderground v.1.15,2013-01-17 10:25:00,
2013-01-17 04:30:00,32.5,30.2,30.23,NNW,337,0.0,0.0,91,0.00,,,0.00,Wunderground v.1.15,2013-01-17 10:30:00,
2013-01-17 04:31:00,32.6,30.3,30.23,NNW,345,0.0,0.0,91,0.00,,,0.00,Wunderground v.1.15,2013-01-17 10:31:00,
2013-01-17 04:34:00,32.7,30.1,30.23,NNW,336,0.0,0.0,90,0.00,,,0.00,Wunderground v.1.15,2013-01-17 10:34:00,
2013-01-17 04:35:00,32.8,30.2,30.23,NNW,340,0.0,0.0,90,0.00,,,0.00,Wunderground v.1.15,2013-01-17 10:35:00,
2013-01-17 04:39:00,32.9,30.3,30.23,North,356,0.0,0.0,90,0.00,,,0.00,Wunderground v.1.15,2013-01-17 10:39:00,
2013-01-17 04:40:00,32.9,30.0,30.23,NNW,342,0.0,0.0,89,0.00,,,0.00,Wunderground v.1.15,2013-01-17 10:40:00,
2013-01-17 04:44:00,33.1,30.2,30.24,NW,319,0.0,0.0,89,0.00,,,0.00,Wunderground v.1.15,2013-01-17 10:44:00,
2013-01-17 04:46:00,33.1,30.2,30.24,NNW,348,0.0,1.0,89,0.00,,,0.00,Wunderground v.1.15,2013-01-17 10:46:00,
2013-01-17 04:47:00,33.1,30.2,30.24,NNW,342,0.0,1.0,89,0.00,,,0.00,Wunderground v.1.15,2013-01-17 10:47:00,
2013-01-17 04:51:00,33.1,30.2,30.24,North,349,0.0,0.0,89,0.00,,,0.00,Wunderground v.1.15,2013-01-17 10:51:00,
2013-01-17 04:52:00,33.1,30.2,30.24,NNW,338,0.0,0.0,89,0.00,,,0.00,Wunderground v.1.15,2013-01-17 10:52:00,
2013-01-17 04:53:00,33.1,30.2,30.24,NNW,340,0.0,0.0,89,0.00,,,0.00,Wunderground v.1.15,2013-01-17 10:53:00,
2013-01-17 04:55:00,33.1,30.2,30.25,NNW,342,0.0,1.0,89,0.00,,,0.00,Wunderground v.1.15,2013-01-17 10:55:00,
2013-01-17 04:57:00,33.0,30.1,30.25,North,349,0.0,1.0,89,0.00,,,0.00,Wunderground v.1.15,2013-01-17 10:57:00,
2013-01-17 05:00:00,33.0,30.1,30.25,NNW,345,0.0,0.0,89,0.00,,,0.00,Wunderground v.1.15,2013-01-17 11:00:00,
2013-01-17 05:01:00,32.9,30.0,30.25,NNW,333,0.0,0.0,89,0.00,,,0.00,Wunderground v.1.15,2013-01-17 11:01:00,
2013-01-17 05:03:00,32.8,29.9,30.25,NNW,340,0.0,0.0,89,0.00,,,0.00,Wunderground v.1.15,2013-01-17 11:03:00,
2013-01-17 05:04:00,32.8,29.9,30.25,NNW,331,0.0,0.0,89,0.00,,,0.00,Wunderground v.1.15,2013-01-17 11:04:00,
2013-01-17 05:08:00,32.6,29.7,30.25,NW,305,0.0,0.0,89,0.00,,,0.00,Wunderground v.1.15,2013-01-17 11:08:00,
2013-01-17 05:09:00,32.6,29.7,30.25,NNW,342,0.0,0.0,89,0.00,,,0.00,Wunderground v.1.15,2013-01-17 11:09:00,
2013-01-17 05:13:00,32.3,29.4,30.26,NW,326,0.0,0.0,89,0.00,,,0.00,Wunderground v.1.15,2013-01-17 11:13:00,
2013-01-17 05:14:00,32.3,29.4,30.26,NNW,331,0.0,0.0,89,0.00,,,0.00,Wunderground v.1.15,2013-01-17 11:14:00,
2013-01-17 05:18:00,32.0,29.1,30.26,NNW,328,0.0,0.0,89,0.00,,,0.00,Wunderground v.1.15,2013-01-17 11:18:00,
2013-01-17 05:19:00,31.9,29.0,30.26,NW,319,0.0,0.0,89,0.00,,,0.00,Wunderground v.1.15,2013-01-17 11:19:00,
2013-01-17 05:21:00,31.8,28.9,30.26,NNW,330,0.0,0.0,89,0.00,,,0.00,Wunderground v.1.15,2013-01-17 11:21:00,
2013-01-17 05:25:00,31.6,28.7,30.26,North,352,0.0,0.0,89,0.00,,,0.00,Wunderground v.1.15,2013-01-17 11:25:00,
2013-01-17 05:26:00,31.5,28.6,30.26,NNW,338,0.0,0.0,89,0.00,,,0.00,Wunderground v.1.15,2013-01-17 11:26:00,
2013-01-17 05:29:00,31.4,28.5,30.27,North,9,0.0,0.0,89,0.00,,,0.00,Wunderground v.1.15,2013-01-17 11:29:00,
2013-01-17 05:30:00,31.4,28.5,30.27,NNW,347,0.0,1.0,89,0.00,,,0.00,Wunderground v.1.15,2013-01-17 11:30:00,
2013-01-17 05:31:00,31.4,28.5,30.26,North,358,0.0,1.0,89,0.00,,,0.00,Wunderground v.1.15,2013-01-17 11:31:00,
2013-01-17 05:34:00,31.2,28.1,30.27,NNW,336,0.0,4.0,88,0.00,,,0.00,Wunderground v.1.15,2013-01-17 11:34:00,
2013-01-17 05:35:00,31.1,28.0,30.27,NNW,334,1.0,4.0,88,0.00,,,0.00,Wunderground v.1.15,2013-01-17 11:35:00,
2013-01-17 05:36:00,31.0,27.9,30.27,NNW,338,1.0,4.0,88,0.00,,,0.00,Wunderground v.1.15,2013-01-17 11:36:00,
2013-01-17 05:37:00,31.0,27.9,30.27,North,349,1.0,4.0,88,0.00,,,0.00,Wunderground v.1.15,2013-01-17 11:37:00,
2013-01-17 05:39:00,30.8,27.7,30.27,NW,322,2.0,2.0,88,0.00,,,0.00,Wunderground v.1.15,2013-01-17 11:39:00,
2013-01-17 05:40:00,30.7,27.6,30.27,North,356,3.0,3.0,88,0.00,,,0.00,Wunderground v.1.15,2013-01-17 11:40:00,
2013-01-17 05:45:00,30.4,27.0,30.28,North,351,3.0,4.0,87,0.00,,,0.00,Wunderground v.1.15,2013-01-17 11:45:00,
2013-01-17 05:47:00,30.2,27.1,30.28,NNW,347,3.0,4.0,88,0.00,,,0.00,Wunderground v.1.15,2013-01-17 11:47:00,
2013-01-17 05:48:00,30.2,27.1,30.28,North,349,3.0,4.0,88,0.00,,,0.00,Wunderground v.1.15,2013-01-17 11:48:00,
2013-01-17 05:51:00,30.0,26.9,30.28,North,6,3.0,3.0,88,0.00,,,0.00,Wunderground v.1.15,2013-01-17 11:51:00,
2013-01-17 05:52:00,29.9,26.8,30.28,NNW,342,2.0,3.0,88,0.00,,,0.00,Wunderground v.1.15,2013-01-17 11:52:00,
2013-01-17 05:53:00,29.9,26.8,30.28,North,352,2.0,3.0,88,0.00,,,0.00,Wunderground v.1.15,2013-01-17 11:53:00,
2013-01-17 05:56:00,29.7,26.6,30.28,North,1,2.0,3.0,88,0.00,,,0.00,Wunderground v.1.15,2013-01-17 11:56:00,
2013-01-17 05:57:00,29.6,26.5,30.28,NW,304,2.0,3.0,88,0.00,,,0.00,Wunderground v.1.15,2013-01-17 11:57:00,
2013-01-17 06:00:00,29.3,26.2,30.28,NNW,345,2.0,4.0,88,0.00,,,0.00,Wunderground v.1.15,2013-01-17 12:00:00,
2013-01-17 06:01:00,29.2,26.1,30.28,North,351,2.0,4.0,88,0.00,,,0.00,Wunderground v.1.15,2013-01-17 12:01:00,
2013-01-17 06:03:00,29.1,26.0,30.28,West,268,2.0,4.0,88,0.00,,,0.00,Wunderground v.1.15,2013-01-17 12:03:00,
2013-01-17 06:04:00,29.0,25.9,30.29,NNW,342,2.0,4.0,88,0.00,,,0.00,Wunderground v.1.15,2013-01-17 12:04:00,
2013-01-17 06:06:00,28.9,25.8,30.29,NNW,340,2.0,4.0,88,0.00,,,0.00,Wunderground v.1.15,2013-01-17 12:06:00,
2013-01-17 06:09:00,28.7,25.9,30.29,North,6,2.0,2.0,89,0.00,,,0.00,Wunderground v.1.15,2013-01-17 12:09:00,
2013-01-17 06:10:00,28.6,25.8,30.29,NNW,342,2.0,4.0,89,0.00,,,0.00,Wunderground v.1.15,2013-01-17 12:10:00,
2013-01-17 06:12:00,28.6,25.8,30.29,NNW,345,2.0,4.0,89,0.00,,,0.00,Wunderground v.1.15,2013-01-17 12:12:00,
2013-01-17 06:14:00,28.4,25.6,30.29,NNW,330,2.0,4.0,89,0.00,,,0.00,Wunderground v.1.15,2013-01-17 12:14:00,
2013-01-17 06:16:00,28.4,25.6,30.29,NNW,332,2.0,4.0,89,0.00,,,0.00,Wunderground v.1.15,2013-01-17 12:16:00,
2013-01-17 06:19:00,28.2,25.4,30.29,North,356,2.0,2.0,89,0.00,,,0.00,Wunderground v.1.15,2013-01-17 12:19:00,
2013-01-17 06:21:00,28.1,25.3,30.29,NNW,340,2.0,4.0,89,0.00,,,0.00,Wunderground v.1.15,2013-01-17 12:21:00,
2013-01-17 06:24:00,28.0,25.2,30.30,NNW,338,3.0,4.0,89,0.00,,,0.00,Wunderground v.1.15,2013-01-17 12:24:00,
2013-01-17 06:27:00,27.8,25.0,30.30,NNW,339,3.0,4.0,89,0.00,,,0.00,Wunderground v.1.15,2013-01-17 12:27:00,
2013-01-17 06:28:00,27.7,24.9,30.30,NNW,347,3.0,4.0,89,0.00,,,0.00,Wunderground v.1.15,2013-01-17 12:28:00,
2013-01-17 06:31:00,27.6,24.8,30.30,NNW,338,3.0,3.0,89,0.00,,,0.00,Wunderground v.1.15,2013-01-17 12:31:00,
2013-01-17 06:32:00,27.5,24.7,30.30,North,353,3.0,4.0,89,0.00,,,0.00,Wunderground v.1.15,2013-01-17 12:32:00,
2013-01-17 06:34:00,27.5,25.0,30.30,NNW,347,3.0,4.0,90,0.00,,,0.00,Wunderground v.1.15,2013-01-17 12:34:00,
2013-01-17 06:37:00,27.4,24.9,30.30,NNW,342,3.0,4.0,90,0.00,,,0.00,Wunderground v.1.15,2013-01-17 12:37:00,
2013-01-17 06:39:00,27.4,24.9,30.30,NNW,333,3.0,4.0,90,0.00,,,0.00,Wunderground v.1.15,2013-01-17 12:39:00,
2013-01-17 06:41:00,27.3,24.8,30.30,NNW,338,3.0,4.0,90,0.00,,,0.00,Wunderground v.1.15,2013-01-17 12:41:00,
2013-01-17 06:43:00,27.2,24.7,30.31,NNW,338,3.0,4.0,90,0.00,,,0.00,Wunderground v.1.15,2013-01-17 12:43:00,
2013-01-17 06:45:00,27.1,24.6,30.31,NNW,346,2.0,4.0,90,0.00,,,0.00,Wunderground v.1.15,2013-01-17 12:45:00,
2013-01-17 06:48:00,26.9,24.4,30.31,NNW,333,2.0,4.0,90,0.00,,,0.00,Wunderground v.1.15,2013-01-17 12:48:00,
2013-01-17 06:50:00,26.9,24.4,30.31,NNW,343,2.0,2.0,90,0.00,,,0.00,Wunderground v.1.15,2013-01-17 12:50:00,
2013-01-17 06:53:00,26.8,24.3,30.31,NNW,339,2.0,3.0,90,0.00,,,0.00,Wunderground v.1.15,2013-01-17 12:53:00,
2013-01-17 06:55:00,26.6,24.1,30.31,NNW,328,3.0,3.0,90,0.00,,,0.00,Wunderground v.1.15,2013-01-17 12:55:00,
2013-01-17 06:59:00,26.5,24.0,30.31,North,351,3.0,5.0,90,0.00,,,0.00,Wunderground v.1.15,2013-01-17 12:59:00,
2013-01-17 07:00:00,26.4,23.9,30.31,NNW,336,3.0,4.0,90,0.00,,,0.00,Wunderground v.1.15,2013-01-17 13:00:00,
2013-01-17 07:02:00,26.3,23.8,30.31,NNW,347,3.0,4.0,90,0.00,,,0.00,Wunderground v.1.15,2013-01-17 13:02:00,
2013-01-17 07:04:00,26.2,23.7,30.31,WNW,299,3.0,4.0,90,0.00,,,0.00,Wunderground v.1.15,2013-01-17 13:04:00,
2013-01-17 07:05:00,26.1,23.6,30.31,NW,319,3.0,4.0,90,0.00,,,0.00,Wunderground v.1.15,2013-01-17 13:05:00,
2013-01-17 07:06:00,26.1,23.6,30.31,NNW,340,3.0,4.0,90,0.00,,,0.00,Wunderground v.1.15,2013-01-17 13:06:00,
2013-01-17 07:09:00,25.9,23.4,30.31,NNW,334,3.0,4.0,90,0.00,,,0.00,Wunderground v.1.15,2013-01-17 13:09:00,
2013-01-17 07:10:00,25.8,23.3,30.31,NNW,344,3.0,3.0,90,0.00,,,0.00,Wunderground v.1.15,2013-01-17 13:10:00,
2013-01-17 07:13:00,25.7,23.2,30.31,NNW,330,3.0,4.0,90,0.00,,,0.00,Wunderground v.1.15,2013-01-17 13:13:00,
2013-01-17 07:14:00,25.7,23.2,30.31,NW,326,3.0,4.0,90,0.00,,,0.00,Wunderground v.1.15,2013-01-17 13:14:00,
2013-01-17 07:15:00,25.7,23.2,30.31,NNW,345,3.0,4.0,90,0.00,,,0.00,Wunderground v.1.15,2013-01-17 13:15:00,
2013-01-17 07:17:00,25.6,23.1,30.31,NNW,339,3.0,4.0,90,0.00,,,0.00,Wunderground v.1.15,2013-01-17 13:17:00,
2013-01-17 07:19:00,25.5,23.0,30.31,NNW,345,3.0,4.0,90,0.00,,,0.00,Wunderground v.1.15,2013-01-17 13:19:00,
2013-01-17 07:20:00,25.4,22.9,30.31,NNW,338,3.0,3.0,90,0.00,,,0.00,Wunderground v.1.15,2013-01-17 13:20:00,
2013-01-17 07:24:00,25.3,22.8,30.31,North,349,3.0,5.0,90,0.00,,,0.00,Wunderground v.1.15,2013-01-17 13:24:00,
2013-01-17 07:25:00,25.3,22.8,30.31,NNW,333,3.0,5.0,90,0.00,,,0.00,Wunderground v.1.15,2013-01-17 13:25:00,
2013-01-17 07:29:00,25.2,22.7,30.32,NNW,343,3.0,5.0,90,0.00,,,0.00,Wunderground v.1.15,2013-01-17 13:29:00,
2013-01-17 07:31:00,25.1,22.6,30.32,NNW,332,3.0,3.0,90,0.00,,,0.00,Wunderground v.1.15,2013-01-17 13:31:00,
2013-01-17 07:32:00,25.1,22.6,30.32,NNW,335,3.0,3.0,90,0.00,,,0.00,Wunderground v.1.15,2013-01-17 13:32:00,
2013-01-17 07:35:00,25.1,22.3,30.32,NNW,340,3.0,3.0,89,0.00,,,0.00,Wunderground v.1.15,2013-01-17 13:35:00,
2013-01-17 07:36:00,25.0,22.2,30.32,North,358,3.0,3.0,89,0.00,,,0.00,Wunderground v.1.15,2013-01-17 13:36:00,
2013-01-17 07:40:00,25.0,22.2,30.32,NNW,336,3.0,4.0,89,0.00,,,0.00,Wunderground v.1.15,2013-01-17 13:40:00,
2013-01-17 07:43:00,25.0,22.2,30.32,NNW,338,3.0,4.0,89,0.00,,,0.00,Wunderground v.1.15,2013-01-17 13:43:00,
2013-01-17 07:45:00,25.0,22.2,30.33,NNW,347,3.0,4.0,89,0.00,,,0.00,Wunderground v.1.15,2013-01-17 13:45:00,
2013-01-17 07:49:00,25.0,22.2,30.33,NNW,334,3.0,4.0,89,0.00,,,0.00,Wunderground v.1.15,2013-01-17 13:49:00,
2013-01-17 07:50:00,25.0,22.2,30.33,NNW,333,3.0,3.0,89,0.00,,,0.00,Wunderground v.1.15,2013-01-17 13:50:00,
2013-01-17 07:52:00,25.0,22.2,30.33,East,83,3.0,4.0,89,0.00,,,0.00,Wunderground v.1.15,2013-01-17 13:52:00,
2013-01-17 07:55:00,25.0,21.9,30.33,NNW,338,3.0,5.0,88,0.00,,,0.00,Wunderground v.1.15,2013-01-17 13:55:00,
2013-01-17 07:56:00,25.0,21.9,30.33,NNW,340,3.0,5.0,88,0.00,,,0.00,Wunderground v.1.15,2013-01-17 13:56:00,
2013-01-17 07:57:00,25.0,21.9,30.33,NNW,348,3.0,5.0,88,0.00,,,0.00,Wunderground v.1.15,2013-01-17 13:57:00,
2013-01-17 07:58:00,25.0,21.9,30.33,NNW,340,3.0,5.0,88,0.00,,,0.00,Wunderground v.1.15,2013-01-17 13:58:00,
2013-01-17 08:00:00,25.1,22.0,30.33,NNW,338,4.0,5.0,88,0.00,,,0.00,Wunderground v.1.15,2013-01-17 14:00:00,
2013-01-17 08:02:00,25.1,22.0,30.34,NNW,333,4.0,5.0,88,0.00,,,0.00,Wunderground v.1.15,2013-01-17 14:02:00,
2013-01-17 08:04:00,25.1,22.0,30.34,North,357,4.0,5.0,88,0.00,,,0.00,Wunderground v.1.15,2013-01-17 14:04:00,
2013-01-17 08:07:00,25.1,22.0,30.34,North,357,4.0,5.0,88,0.00,,,0.00,Wunderground v.1.15,2013-01-17 14:07:00,
2013-01-17 08:09:00,25.2,21.9,30.34,North,352,4.0,5.0,87,0.00,,,0.00,Wunderground v.1.15,2013-01-17 14:09:00,
2013-01-17 08:10:00,25.2,21.9,30.34,North,349,3.0,5.0,87,0.00,,,0.00,Wunderground v.1.15,2013-01-17 14:10:00,
2013-01-17 08:11:00,25.3,22.0,30.34,NNW,342,3.0,5.0,87,0.00,,,0.00,Wunderground v.1.15,2013-01-17 14:11:00,
2013-01-17 08:15:00,25.3,22.0,30.34,NNW,335,3.0,5.0,87,0.00,,,0.00,Wunderground v.1.15,2013-01-17 14:15:00,
2013-01-17 08:17:00,25.4,22.1,30.34,North,349,4.0,5.0,87,0.00,,,0.00,Wunderground v.1.15,2013-01-17 14:17:00,
2013-01-17 08:18:00,25.4,22.1,30.35,North,354,3.0,5.0,87,0.00,,,0.00,Wunderground v.1.15,2013-01-17 14:18:00,
2013-01-17 08:22:00,25.4,21.8,30.35,NNW,345,3.0,4.0,86,0.00,,,0.00,Wunderground v.1.15,2013-01-17 14:22:00,
2013-01-17 08:23:00,25.4,21.8,30.35,WNW,283,3.0,4.0,86,0.00,,,0.00,Wunderground v.1.15,2013-01-17 14:23:00,
2013-01-17 08:26:00,25.4,21.8,30.35,NNW,348,3.0,4.0,86,0.00,,,0.00,Wunderground v.1.15,2013-01-17 14:26:00,
2013-01-17 08:28:00,25.4,21.8,30.35,NNW,338,3.0,5.0,86,0.00,,,0.00,Wunderground v.1.15,2013-01-17 14:28:00,
2013-01-17 08:29:00,25.4,21.8,30.35,North,359,3.0,5.0,86,0.00,,,0.00,Wunderground v.1.15,2013-01-17 14:29:00,
2013-01-17 08:33:00,25.4,21.5,30.35,NNE,18,4.0,6.0,85,0.00,,,0.00,Wunderground v.1.15,2013-01-17 14:33:00,
2013-01-17 08:34:00,25.5,21.6,30.35,NW,305,4.0,6.0,85,0.00,,,0.00,Wunderground v.1.15,2013-01-17 14:34:00,
2013-01-17 08:38:00,25.6,21.7,30.35,NNE,16,4.0,6.0,85,0.00,,,0.00,Wunderground v.1.15,2013-01-17 14:38:00,
2013-01-17 08:39:00,25.6,21.7,30.35,North,4,4.0,6.0,85,0.00,,,0.00,Wunderground v.1.15,2013-01-17 14:39:00,
2013-01-17 08:41:00,25.7,21.8,30.35,North,4,4.0,5.0,85,0.00,,,0.00,Wunderground v.1.15,2013-01-17 14:41:00,
2013-01-17 08:43:00,25.7,21.5,30.36,NNW,337,3.0,5.0,84,0.00,,,0.00,Wunderground v.1.15,2013-01-17 14:43:00,
2013-01-17 08:44:00,25.8,21.6,30.36,North,349,3.0,5.0,84,0.00,,,0.00,Wunderground v.1.15,2013-01-17 14:44:00,
2013-01-17 08:45:00,25.8,21.6,30.36,North,352,3.0,5.0,84,0.00,,,0.00,Wunderground v.1.15,2013-01-17 14:45:00,
2013-01-17 08:48:00,25.9,21.7,30.35,NW,314,3.0,5.0,84,0.00,,,0.00,Wunderground v.1.15,2013-01-17 14:48:00,
2013-01-17 08:49:00,26.0,21.8,30.35,NNW,329,3.0,5.0,84,0.00,,,0.00,Wunderground v.1.15,2013-01-17 14:49:00,
2013-01-17 08:50:00,26.0,21.8,30.36,North,360,3.0,4.0,84,0.00,,,0.00,Wunderground v.1.15,2013-01-17 14:50:00,
2013-01-17 08:51:00,26.0,21.8,30.36,North,4,3.0,5.0,84,0.00,,,0.00,Wunderground v.1.15,2013-01-17 14:51:00,
2013-01-17 08:56:00,26.1,21.6,30.36,NNW,340,3.0,5.0,83,0.00,,,0.00,Wunderground v.1.15,2013-01-17 14:56:00,
2013-01-17 08:57:00,26.1,21.6,30.36,NNW,342,3.0,5.0,83,0.00,,,0.00,Wunderground v.1.15,2013-01-17 14:57:00,
2013-01-17 08:58:00,26.2,21.7,30.36,NNW,342,3.0,5.0,83,0.00,,,0.00,Wunderground v.1.15,2013-01-17 14:58:00,
2013-01-17 09:01:00,26.4,21.9,30.37,NNW,331,3.0,3.0,83,0.00,,,0.00,Wunderground v.1.15,2013-01-17 15:01:00,
2013-01-17 09:03:00,26.5,22.0,30.36,NW,321,3.0,5.0,83,0.00,,,0.00,Wunderground v.1.15,2013-01-17 15:03:00,
2013-01-17 09:05:00,26.5,22.0,30.37,NNW,345,3.0,5.0,83,0.00,,,0.00,Wunderground v.1.15,2013-01-17 15:05:00,
2013-01-17 09:07:00,26.6,22.1,30.37,NNE,22,3.0,5.0,83,0.00,,,0.00,Wunderground v.1.15,2013-01-17 15:07:00,
2013-01-17 09:12:00,26.7,21.9,30.37,NNW,343,4.0,5.0,82,0.00,,,0.00,Wunderground v.1.15,2013-01-17 15:12:00,
2013-01-17 09:13:00,26.7,21.9,30.37,NNW,345,4.0,5.0,82,0.00,,,0.00,Wunderground v.1.15,2013-01-17 15:13:00,
2013-01-17 09:15:00,26.8,22.0,30.37,NNW,347,4.0,5.0,82,0.00,,,0.00,Wunderground v.1.15,2013-01-17 15:15:00,
2013-01-17 09:16:00,26.8,22.0,30.37,NW,307,4.0,5.0,82,0.00,,,0.00,Wunderground v.1.15,2013-01-17 15:16:00,
2013-01-17 09:19:00,26.9,21.8,30.37,NNW,343,4.0,6.0,81,0.00,,,0.00,Wunderground v.1.15,2013-01-17 15:19:00,
2013-01-17 09:22:00,27.0,21.9,30.37,NNW,342,4.0,4.0,81,0.00,,,0.00,Wunderground v.1.15,2013-01-17 15:22:00,
2013-01-17 09:24:00,27.1,22.0,30.37,NNW,339,4.0,4.0,81,0.00,,,0.00,Wunderground v.1.15,2013-01-17 15:24:00,
2013-01-17 09:25:00,27.1,22.0,30.37,North,4,4.0,4.0,81,0.00,,,0.00,Wunderground v.1.15,2013-01-17 15:25:00,
2013-01-17 09:26:00,27.2,22.4,30.37,North,8,4.0,4.0,82,0.00,,,0.00,Wunderground v.1.15,2013-01-17 15:26:00,
2013-01-17 09:27:00,27.3,22.2,30.37,NNW,347,3.0,4.0,81,0.00,,,0.00,Wunderground v.1.15,2013-01-17 15:27:00,
2013-01-17 09:29:00,27.5,22.4,30.37,NNW,342,3.0,3.0,81,0.00,,,0.00,Wunderground v.1.15,2013-01-17 15:29:00,
2013-01-17 09:34:00,27.8,22.7,30.37,NNW,329,1.0,3.0,81,0.00,,,0.00,Wunderground v.1.15,2013-01-17 15:34:00,
2013-01-17 09:37:00,28.1,23.0,30.37,NNW,338,1.0,3.0,81,0.00,,,0.00,Wunderground v.1.15,2013-01-17 15:37:00,
2013-01-17 09:39:00,28.3,23.2,30.37,NNW,338,1.0,3.0,81,0.00,,,0.00,Wunderground v.1.15,2013-01-17 15:39:00,
2013-01-17 09:40:00,28.4,23.3,30.37,NNW,338,1.0,3.0,81,0.00,,,0.00,Wunderground v.1.15,2013-01-17 15:40:00,
2013-01-17 09:42:00,28.4,23.0,30.37,NNW,340,1.0,3.0,80,0.00,,,0.00,Wunderground v.1.15,2013-01-17 15:42:00,
2013-01-17 09:44:00,28.3,22.3,30.37,North,351,2.0,4.0,78,0.00,,,0.00,Wunderground v.1.15,2013-01-17 15:44:00,
2013-01-17 09:48:00,28.2,22.5,30.38,NNW,344,3.0,4.0,79,0.00,,,0.00,Wunderground v.1.15,2013-01-17 15:48:00,
2013-01-17 09:49:00,28.3,22.3,30.38,NNW,342,3.0,4.0,78,0.00,,,0.00,Wunderground v.1.15,2013-01-17 15:49:00,
2013-01-17 09:53:00,28.6,22.9,30.38,NNW,344,3.0,4.0,79,0.00,,,0.00,Wunderground v.1.15,2013-01-17 15:53:00,
2013-01-17 09:54:00,28.7,22.7,30.38,NNW,332,2.0,4.0,78,0.00,,,0.00,Wunderground v.1.15,2013-01-17 15:54:00,
2013-01-17 10:00:00,29.0,22.7,30.38,NE,36,2.0,2.0,77,0.00,,,0.00,Wunderground v.1.15,2013-01-17 16:00:00,
2013-01-17 10:01:00,29.0,22.7,30.38,NNW,340,2.0,3.0,77,0.00,,,0.00,Wunderground v.1.15,2013-01-17 16:01:00,
2013-01-17 10:02:00,29.0,22.7,30.38,NNE,27,3.0,3.0,77,0.00,,,0.00,Wunderground v.1.15,2013-01-17 16:02:00,
2013-01-17 10:03:00,29.1,22.8,30.38,North,354,3.0,3.0,77,0.00,,,0.00,Wunderground v.1.15,2013-01-17 16:03:00,
2013-01-17 10:06:00,29.3,23.0,30.38,North,8,3.0,3.0,77,0.00,,,0.00,Wunderground v.1.15,2013-01-17 16:06:00,
2013-01-17 10:08:00,29.4,22.8,30.39,North,8,3.0,3.0,76,0.00,,,0.00,Wunderground v.1.15,2013-01-17 16:08:00,
2013-01-17 10:09:00,29.4,22.8,30.38,NNE,19,3.0,4.0,76,0.00,,,0.00,Wunderground v.1.15,2013-01-17 16:09:00,
2013-01-17 10:10:00,29.5,22.9,30.39,North,358,3.0,4.0,76,0.00,,,0.00,Wunderground v.1.15,2013-01-17 16:10:00,
2013-01-17 10:11:00,29.5,22.9,30.39,NE,47,2.0,4.0,76,0.00,,,0.00,Wunderground v.1.15,2013-01-17 16:11:00,
2013-01-17 10:13:00,29.5,22.6,30.39,North,6,3.0,5.0,75,0.00,,,0.00,Wunderground v.1.15,2013-01-17 16:13:00,
2013-01-17 10:16:00,29.4,21.8,30.39,NNW,335,4.0,5.0,73,0.00,,,0.00,Wunderground v.1.15,2013-01-17 16:16:00,
2013-01-17 10:18:00,29.5,22.2,30.39,NW,304,4.0,5.0,74,0.00,,,0.00,Wunderground v.1.15,2013-01-17 16:18:00,
2013-01-17 10:19:00,29.6,22.6,30.39,NNW,340,4.0,5.0,75,0.00,,,0.00,Wunderground v.1.15,2013-01-17 16:19:00,
2013-01-17 10:22:00,29.8,22.8,30.39,North,359,4.0,7.0,75,0.00,,,0.00,Wunderground v.1.15,2013-01-17 16:22:00,
2013-01-17 10:23:00,29.7,22.7,30.39,NW,314,4.0,7.0,75,0.00,,,0.00,Wunderground v.1.15,2013-01-17 16:23:00,
2013-01-17 10:24:00,29.8,22.8,30.39,NW,318,4.0,7.0,75,0.00,,,0.00,Wunderground v.1.15,2013-01-17 16:24:00,
2013-01-17 10:25:00,29.8,22.8,30.39,NW,322,3.0,7.0,75,0.00,,,0.00,Wunderground v.1.15,2013-01-17 16:25:00,
2013-01-17 10:27:00,29.8,22.5,30.39,North,354,3.0,7.0,74,0.00,,,0.00,Wunderground v.1.15,2013-01-17 16:27:00,
2013-01-17 10:28:00,29.7,22.1,30.39,NNW,339,3.0,7.0,73,0.00,,,0.00,Wunderground v.1.15,2013-01-17 16:28:00,
2013-01-17 10:29:00,29.7,22.1,30.39,NNW,340,3.0,7.0,73,0.00,,,0.00,Wunderground v.1.15,2013-01-17 16:29:00,
2013-01-17 10:32:00,29.7,22.1,30.40,WNW,297,3.0,5.0,73,0.00,,,0.00,Wunderground v.1.15,2013-01-17 16:32:00,
2013-01-17 10:33:00,29.7,21.8,30.40,North,354,3.0,7.0,72,0.00,,,0.00,Wunderground v.1.15,2013-01-17 16:33:00,
2013-01-17 10:36:00,29.6,22.0,30.40,North,359,4.0,7.0,73,0.00,,,0.00,Wunderground v.1.15,2013-01-17 16:36:00,
2013-01-17 10:37:00,29.6,22.0,30.40,NNW,348,4.0,8.0,73,0.00,,,0.00,Wunderground v.1.15,2013-01-17 16:37:00,
2013-01-17 10:38:00,29.6,21.7,30.40,North,349,4.0,8.0,72,0.00,,,0.00,Wunderground v.1.15,2013-01-17 16:38:00,
2013-01-17 10:39:00,29.6,21.7,30.40,NW,316,4.0,8.0,72,0.00,,,0.00,Wunderground v.1.15,2013-01-17 16:39:00,
2013-01-17 10:41:00,29.5,21.6,30.40,NNW,329,4.0,7.0,72,0.00,,,0.00,Wunderground v.1.15,2013-01-17 16:41:00,
2013-01-17 10:44:00,29.4,21.5,30.40,NNW,335,5.0,7.0,72,0.00,,,0.00,Wunderground v.1.15,2013-01-17 16:44:00,
2013-01-17 10:46:00,29.4,21.5,30.40,NW,308,5.0,7.0,72,0.00,,,0.00,Wunderground v.1.15,2013-01-17 16:46:00,
2013-01-17 10:48:00,29.5,21.9,30.40,WNW,302,5.0,7.0,73,0.00,,,0.00,Wunderground v.1.15,2013-01-17 16:48:00,
2013-01-17 10:49:00,29.4,21.2,30.40,NNW,338,5.0,6.0,71,0.00,,,0.00,Wunderground v.1.15,2013-01-17 16:49:00,
2013-01-17 10:51:00,29.4,21.2,30.40,NNW,330,4.0,7.0,71,0.00,,,0.00,Wunderground v.1.15,2013-01-17 16:51:00,
2013-01-17 10:53:00,29.2,20.3,30.40,NNW,338,5.0,9.0,69,0.00,,,0.00,Wunderground v.1.15,2013-01-17 16:53:00,
2013-01-17 10:57:00,29.2,20.6,30.40,North,354,5.0,9.0,70,0.00,,,0.00,Wunderground v.1.15,2013-01-17 16:57:00,
2013-01-17 11:00:00,29.2,20.3,30.40,NNW,338,6.0,6.0,69,0.00,,,0.00,Wunderground v.1.15,2013-01-17 17:00:00,
2013-01-17 11:01:00,29.2,20.3,30.40,NNW,342,6.0,6.0,69,0.00,,,0.00,Wunderground v.1.15,2013-01-17 17:01:00,
2013-01-17 11:02:00,29.3,20.4,30.40,NW,315,6.0,7.0,69,0.00,,,0.00,Wunderground v.1.15,2013-01-17 17:02:00,
2013-01-17 11:06:00,29.4,19.8,30.41,North,353,5.0,7.0,67,0.00,,,0.00,Wunderground v.1.15,2013-01-17 17:06:00,
2013-01-17 11:08:00,29.4,19.4,30.41,NNW,335,5.0,7.0,66,0.00,,,0.00,Wunderground v.1.15,2013-01-17 17:08:00,
2013-01-17 11:09:00,29.5,19.9,30.41,NNW,331,5.0,7.0,67,0.00,,,0.00,Wunderground v.1.15,2013-01-17 17:09:00,
2013-01-17 11:13:00,29.8,20.9,30.40,NE,39,4.0,6.0,69,0.00,,,0.00,Wunderground v.1.15,2013-01-17 17:13:00,
2013-01-17 11:15:00,29.9,21.0,30.40,NNW,340,4.0,6.0,69,0.00,,,0.00,Wunderground v.1.15,2013-01-17 17:15:00,
2013-01-17 11:18:00,29.9,20.3,30.40,North,349,3.0,6.0,67,0.00,,,0.00,Wunderground v.1.15,2013-01-17 17:18:00,
2013-01-17 11:20:00,30.0,20.4,30.40,WNW,295,3.0,5.0,67,0.00,,,0.00,Wunderground v.1.15,2013-01-17 17:20:00,
2013-01-17 11:22:00,30.0,20.4,30.40,NNW,331,4.0,5.0,67,0.00,,,0.00,Wunderground v.1.15,2013-01-17 17:22:00,
2013-01-17 11:24:00,30.1,20.5,30.40,NNW,342,4.0,5.0,67,0.00,,,0.00,Wunderground v.1.15,2013-01-17 17:24:00,
2013-01-17 11:27:00,30.2,20.2,30.40,NNW,327,4.0,5.0,66,0.00,,,0.00,Wunderground v.1.15,2013-01-17 17:27:00,
2013-01-17 11:29:00,30.3,19.9,30.39,NNW,338,4.0,5.0,65,0.00,,,0.00,Wunderground v.1.15,2013-01-17 17:29:00,
2013-01-17 11:32:00,30.3,19.9,30.40,NW,323,4.0,4.0,65,0.00,,,0.00,Wunderground v.1.15,2013-01-17 17:32:00,
2013-01-17 11:36:00,30.4,20.0,30.39,NNW,338,3.0,5.0,65,0.00,,,0.00,Wunderground v.1.15,2013-01-17 17:36:00,
2013-01-17 11:37:00,30.4,19.3,30.40,WNW,295,3.0,5.0,63,0.00,,,0.00,Wunderground v.1.15,2013-01-17 17:37:00,
2013-01-17 11:39:00,30.3,18.8,30.40,NE,36,3.0,4.0,62,0.00,,,0.00,Wunderground v.1.15,2013-01-17 17:39:00,
2013-01-17 11:41:00,30.2,18.7,30.40,North,356,3.0,5.0,62,0.00,,,0.00,Wunderground v.1.15,2013-01-17 17:41:00,
2013-01-17 11:42:00,30.2,19.1,30.40,NNW,342,3.0,5.0,63,0.00,,,0.00,Wunderground v.1.15,2013-01-17 17:42:00,
2013-01-17 11:43:00,30.2,19.5,30.40,NNW,342,3.0,5.0,64,0.00,,,0.00,Wunderground v.1.15,2013-01-17 17:43:00,
2013-01-17 11:47:00,30.4,18.9,30.39,WNW,302,3.0,5.0,62,0.00,,,0.00,Wunderground v.1.15,2013-01-17 17:47:00,
2013-01-17 11:48:00,30.4,19.3,30.39,NNW,342,3.0,5.0,63,0.00,,,0.00,Wunderground v.1.15,2013-01-17 17:48:00,
2013-01-17 11:50:00,30.4,18.9,30.39,NNW,342,3.0,6.0,62,0.00,,,0.00,Wunderground v.1.15,2013-01-17 17:50:00,
2013-01-17 11:53:00,30.3,18.5,30.39,NW,316,3.0,6.0,61,0.00,,,0.00,Wunderground v.1.15,2013-01-17 17:53:00,
2013-01-17 11:57:00,30.5,19.0,30.39,North,359,4.0,6.0,62,0.00,,,0.00,Wunderground v.1.15,2013-01-17 17:57:00,
2013-01-17 11:58:00,30.5,19.0,30.39,WNW,301,4.0,6.0,62,0.00,,,0.00,Wunderground v.1.15,2013-01-17 17:58:00,
2013-01-17 11:59:00,30.5,18.6,30.39,NNW,346,4.0,6.0,61,0.00,,,0.00,Wunderground v.1.15,2013-01-17 17:59:00,
2013-01-17 12:03:00,30.5,18.6,30.39,NW,324,4.0,6.0,61,0.00,,,0.00,Wunderground v.1.15,2013-01-17 18:03:00,
2013-01-17 12:04:00,30.5,17.9,30.39,NNW,346,4.0,6.0,59,0.00,,,0.00,Wunderground v.1.15,2013-01-17 18:04:00,
2013-01-17 12:05:00,30.5,18.3,30.39,NNW,343,4.0,6.0,60,0.00,,,0.00,Wunderground v.1.15,2013-01-17 18:05:00,
2013-01-17 12:06:00,30.5,18.3,30.39,NNW,335,4.0,6.0,60,0.00,,,0.00,Wunderground v.1.15,2013-01-17 18:06:00,
2013-01-17 12:10:00,30.6,18.0,30.39,NNE,18,4.0,4.0,59,0.00,,,0.00,Wunderground v.1.15,2013-01-17 18:10:00,
2013-01-17 12:12:00,30.7,18.4,30.39,North,352,3.0,4.0,60,0.00,,,0.00,Wunderground v.1.15,2013-01-17 18:12:00,
2013-01-17 12:13:00,30.7,18.1,30.39,NNW,327,3.0,6.0,59,0.00,,,0.00,Wunderground v.1.15,2013-01-17 18:13:00,
2013-01-17 12:16:00,30.8,18.1,30.39,North,6,3.0,6.0,59,0.00,,,0.00,Wunderground v.1.15,2013-01-17 18:16:00,
2013-01-17 12:17:00,30.9,19.0,30.39,NNW,343,3.0,6.0,61,0.00,,,0.00,Wunderground v.1.15,2013-01-17 18:17:00,
2013-01-17 12:18:00,31.0,18.7,30.39,NNW,342,3.0,6.0,60,0.00,,,0.00,Wunderground v.1.15,2013-01-17 18:18:00,
2013-01-17 12:21:00,31.2,18.5,30.39,NW,309,3.0,3.0,59,0.00,,,0.00,Wunderground v.1.15,2013-01-17 18:21:00,
2013-01-17 12:22:00,31.3,19.0,30.39,NNW,330,3.0,3.0,60,0.00,,,0.00,Wunderground v.1.15,2013-01-17 18:22:00,
2013-01-17 12:23:00,31.5,20.0,30.39,North,349,2.0,3.0,62,0.00,,,0.00,Wunderground v.1.15,2013-01-17 18:23:00,
2013-01-17 12:24:00,31.6,19.7,30.39,NNW,338,2.0,3.0,61,0.00,,,0.00,Wunderground v.1.15,2013-01-17 18:24:00,
2013-01-17 12:30:00,31.8,19.1,30.38,NNW,338,2.0,3.0,59,0.00,,,0.00,Wunderground v.1.15,2013-01-17 18:30:00,
2013-01-17 12:31:00,31.7,18.6,30.39,NW,311,2.0,5.0,58,0.00,,,0.00,Wunderground v.1.15,2013-01-17 18:31:00,
2013-01-17 12:32:00,31.7,18.6,30.38,NNW,335,2.0,5.0,58,0.00,,,0.00,Wunderground v.1.15,2013-01-17 18:32:00,
2013-01-17 12:36:00,31.6,18.5,30.38,NNW,338,3.0,5.0,58,0.00,,,0.00,Wunderground v.1.15,2013-01-17 18:36:00,
2013-01-17 12:37:00,31.6,18.5,30.38,NW,325,3.0,5.0,58,0.00,,,0.00,Wunderground v.1.15,2013-01-17 18:37:00,
2013-01-17 12:41:00,31.5,18.0,30.39,NNE,19,4.0,5.0,57,0.00,,,0.00,Wunderground v.1.15,2013-01-17 18:41:00,
2013-01-17 12:43:00,31.5,18.4,30.38,NNW,346,4.0,5.0,58,0.00,,,0.00,Wunderground v.1.15,2013-01-17 18:43:00,
2013-01-17 12:44:00,31.5,18.8,30.38,NNW,342,4.0,5.0,59,0.00,,,0.00,Wunderground v.1.15,2013-01-17 18:44:00,
2013-01-17 12:46:00,31.6,18.9,30.38,NNW,342,4.0,5.0,59,0.00,,,0.00,Wunderground v.1.15,2013-01-17 18:46:00,
2013-01-17 12:51:00,32.1,19.0,30.38,NE,36,3.0,6.0,58,0.00,,,0.00,Wunderground v.1.15,2013-01-17 18:51:00,
2013-01-17 12:52:00,32.1,19.0,30.38,NNW,346,3.0,6.0,58,0.00,,,0.00,Wunderground v.1.15,2013-01-17 18:52:00,
2013-01-17 12:53:00,32.0,18.5,30.38,NNW,340,3.0,6.0,57,0.00,,,0.00,Wunderground v.1.15,2013-01-17 18:53:00,
2013-01-17 12:54:00,32.0,18.9,30.38,West,273,3.0,6.0,58,0.00,,,0.00,Wunderground v.1.15,2013-01-17 18:54:00,
2013-01-17 12:57:00,32.2,19.1,30.38,NW,308,3.0,6.0,58,0.00,,,0.00,Wunderground v.1.15,2013-01-17 18:57:00,
2013-01-17 12:59:00,32.2,18.7,30.38,North,357,3.0,6.0,57,0.00,,,0.00,Wunderground v.1.15,2013-01-17 18:59:00,
2013-01-17 13:02:00,32.3,19.6,30.38,NNW,344,3.0,6.0,59,0.00,,,0.00,Wunderground v.1.15,2013-01-17 19:02:00,
2013-01-17 13:04:00,32.2,18.7,30.38,NW,325,3.0,6.0,57,0.00,,,0.00,Wunderground v.1.15,2013-01-17 19:04:00,
2013-01-17 13:05:00,32.2,19.1,30.38,NNW,336,4.0,6.0,58,0.00,,,0.00,Wunderground v.1.15,2013-01-17 19:05:00,
2013-01-17 13:06:00,32.2,18.7,30.38,NNW,338,4.0,6.0,57,0.00,,,0.00,Wunderground v.1.15,2013-01-17 19:06:00,
2013-01-17 13:07:00,32.3,20.0,30.38,NNW,335,4.0,6.0,60,0.00,,,0.00,Wunderground v.1.15,2013-01-17 19:07:00,
2013-01-17 13:12:00,32.4,19.3,30.38,North,6,4.0,4.0,58,0.00,,,0.00,Wunderground v.1.15,2013-01-17 19:12:00,
2013-01-17 13:13:00,32.4,19.3,30.38,NNE,13,4.0,4.0,58,0.00,,,0.00,Wunderground v.1.15,2013-01-17 19:13:00,
2013-01-17 13:14:00,32.4,18.8,30.38,NNW,335,4.0,4.0,57,0.00,,,0.00,Wunderground v.1.15,2013-01-17 19:14:00,
2013-01-17 13:17:00,32.3,18.8,30.38,NNW,328,4.0,5.0,57,0.00,,,0.00,Wunderground v.1.15,2013-01-17 19:17:00,
2013-01-17 13:18:00,32.2,18.2,30.38,NNW,346,5.0,5.0,56,0.00,,,0.00,Wunderground v.1.15,2013-01-17 19:18:00,
2013-01-17 13:19:00,32.2,18.2,30.38,NW,316,5.0,5.0,56,0.00,,,0.00,Wunderground v.1.15,2013-01-17 19:19:00,
2013-01-17 13:20:00,32.1,18.6,30.38,NNW,335,5.0,6.0,57,0.00,,,0.00,Wunderground v.1.15,2013-01-17 19:20:00,
2013-01-17 13:23:00,32.2,19.1,30.38,North,352,5.0,6.0,58,0.00,,,0.00,Wunderground v.1.15,2013-01-17 19:23:00,
2013-01-17 13:24:00,32.2,19.1,30.38,WNW,298,5.0,6.0,58,0.00,,,0.00,Wunderground v.1.15,2013-01-17 19:24:00,
2013-01-17 13:27:00,32.4,19.3,30.38,NW,321,4.0,6.0,58,0.00,,,0.00,Wunderground v.1.15,2013-01-17 19:27:00,
2013-01-17 13:29:00,32.4,19.3,30.38,NE,54,4.0,6.0,58,0.00,,,0.00,Wunderground v.1.15,2013-01-17 19:29:00,
2013-01-17 13:31:00,32.4,19.3,30.38,NNW,340,3.0,4.0,58,0.00,,,0.00,Wunderground v.1.15,2013-01-17 19:31:00,
2013-01-17 13:32:00,32.5,19.3,30.38,NW,307,3.0,4.0,58,0.00,,,0.00,Wunderground v.1.15,2013-01-17 19:32:00,
2013-01-17 13:36:00,32.3,17.9,30.38,NNW,331,4.0,8.0,55,0.00,,,0.00,Wunderground v.1.15,2013-01-17 19:36:00,
2013-01-17 13:38:00,32.0,18.1,30.38,North,360,5.0,8.0,56,0.00,,,0.00,Wunderground v.1.15,2013-01-17 19:38:00,
2013-01-17 13:41:00,31.9,18.4,30.38,NNW,337,5.0,5.0,57,0.00,,,0.00,Wunderground v.1.15,2013-01-17 19:41:00,
2013-01-17 13:44:00,31.9,18.8,30.38,NNW,331,6.0,7.0,58,0.00,,,0.00,Wunderground v.1.15,2013-01-17 19:44:00,
2013-01-17 13:45:00,32.0,18.9,30.38,WNW,288,5.0,7.0,58,0.00,,,0.00,Wunderground v.1.15,2013-01-17 19:45:00,
2013-01-17 13:46:00,32.0,18.9,30.38,NW,323,5.0,7.0,58,0.00,,,0.00,Wunderground v.1.15,2013-01-17 19:46:00,
2013-01-17 13:49:00,32.2,19.5,30.38,North,349,4.0,7.0,59,0.00,,,0.00,Wunderground v.1.15,2013-01-17 19:49:00,
2013-01-17 13:51:00,32.3,19.2,30.38,NNW,346,4.0,8.0,58,0.00,,,0.00,Wunderground v.1.15,2013-01-17 19:51:00,
2013-01-17 13:54:00,32.2,19.1,30.38,NNW,342,4.0,8.0,58,0.00,,,0.00,Wunderground v.1.15,2013-01-17 19:54:00,
2013-01-17 13:55:00,32.2,19.1,30.38,NW,311,5.0,8.0,58,0.00,,,0.00,Wunderground v.1.15,2013-01-17 19:55:00,
2013-01-17 13:57:00,32.2,19.5,30.38,NNW,342,5.0,8.0,59,0.00,,,0.00,Wunderground v.1.15,2013-01-17 19:57:00,
2013-01-17 13:59:00,32.2,18.7,30.38,NNW,335,5.0,8.0,57,0.00,,,0.00,Wunderground v.1.15,2013-01-17 19:59:00,
2013-01-17 14:00:00,32.1,18.6,30.38,NNW,340,5.0,7.0,57,0.00,,,0.00,Wunderground v.1.15,2013-01-17 20:00:00,
2013-01-17 14:04:00,31.9,18.4,30.39,North,354,5.0,7.0,57,0.00,,,0.00,Wunderground v.1.15,2013-01-17 20:04:00,
2013-01-17 14:06:00,32.0,18.9,30.38,NNE,17,5.0,7.0,58,0.00,,,0.00,Wunderground v.1.15,2013-01-17 20:06:00,
2013-01-17 14:07:00,32.1,19.0,30.38,NNW,344,4.0,7.0,58,0.00,,,0.00,Wunderground v.1.15,2013-01-17 20:07:00,
2013-01-17 14:10:00,32.2,19.5,30.38,NNE,16,3.0,5.0,59,0.00,,,0.00,Wunderground v.1.15,2013-01-17 20:10:00,
2013-01-17 14:11:00,32.3,19.6,30.38,NNW,342,3.0,6.0,59,0.00,,,0.00,Wunderground v.1.15,2013-01-17 20:11:00,
2013-01-17 14:16:00,32.3,19.6,30.39,NW,321,3.0,6.0,59,0.00,,,0.00,Wunderground v.1.15,2013-01-17 20:16:00,
2013-01-17 14:17:00,32.3,19.6,30.38,NNW,339,3.0,6.0,59,0.00,,,0.00,Wunderground v.1.15,2013-01-17 20:17:00,
2013-01-17 14:19:00,32.3,20.0,30.39,NNW,347,3.0,6.0,60,0.00,,,0.00,Wunderground v.1.15,2013-01-17 20:19:00,
2013-01-17 14:21:00,32.4,19.7,30.39,NNW,345,4.0,4.0,59,0.00,,,0.00,Wunderground v.1.15,2013-01-17 20:21:00,
2013-01-17 14:23:00,32.5,19.7,30.39,North,1,4.0,4.0,59,0.00,,,0.00,Wunderground v.1.15,2013-01-17 20:23:00,
2013-01-17 14:26:00,32.7,20.3,30.39,North,354,4.0,7.0,60,0.00,,,0.00,Wunderground v.1.15,2013-01-17 20:26:00,
2013-01-17 14:27:00,32.7,19.9,30.39,NNE,12,4.0,7.0,59,0.00,,,0.00,Wunderground v.1.15,2013-01-17 20:27:00,
2013-01-17 14:28:00,32.7,20.3,30.39,NNW,342,4.0,7.0,60,0.00,,,0.00,Wunderground v.1.15,2013-01-17 20:28:00,
2013-01-17 14:32:00,32.6,19.4,30.39,NE,49,4.0,6.0,58,0.00,,,0.00,Wunderground v.1.15,2013-01-17 20:32:00,
2013-01-17 14:33:00,32.5,19.3,30.39,NNW,346,4.0,6.0,58,0.00,,,0.00,Wunderground v.1.15,2013-01-17 20:33:00,
2013-01-17 14:34:00,32.4,18.8,30.39,NNW,342,5.0,7.0,57,0.00,,,0.00,Wunderground v.1.15,2013-01-17 20:34:00,
2013-01-17 14:37:00,32.2,18.7,30.39,North,5,5.0,7.0,57,0.00,,,0.00,Wunderground v.1.15,2013-01-17 20:37:00,
2013-01-17 14:38:00,32.2,19.1,30.39,NNE,27,5.0,7.0,58,0.00,,,0.00,Wunderground v.1.15,2013-01-17 20:38:00,
2013-01-17 14:42:00,32.4,19.7,30.39,NNW,343,4.0,5.0,59,0.00,,,0.00,Wunderground v.1.15,2013-01-17 20:42:00,
2013-01-17 14:43:00,32.4,19.7,30.39,NNW,335,4.0,5.0,59,0.00,,,0.00,Wunderground v.1.15,2013-01-17 20:43:00,
2013-01-17 14:44:00,32.4,19.3,30.38,NW,304,4.0,5.0,58,0.00,,,0.00,Wunderground v.1.15,2013-01-17 20:44:00,
2013-01-17 14:47:00,32.2,19.5,30.38,NNW,338,4.0,7.0,59,0.00,,,0.00,Wunderground v.1.15,2013-01-17 20:47:00,
2013-01-17 14:50:00,32.2,19.5,30.39,NNE,19,3.0,5.0,59,0.00,,,0.00,Wunderground v.1.15,2013-01-17 20:50:00,
2013-01-17 14:51:00,32.3,20.0,30.39,NNW,342,3.0,5.0,60,0.00,,,0.00,Wunderground v.1.15,2013-01-17 20:51:00,
2013-01-17 14:52:00,32.3,20.0,30.39,North,359,3.0,5.0,60,0.00,,,0.00,Wunderground v.1.15,2013-01-17 20:52:00,
2013-01-17 14:53:00,32.4,20.4,30.39,North,359,3.0,5.0,61,0.00,,,0.00,Wunderground v.1.15,2013-01-17 20:53:00,
2013-01-17 14:57:00,32.4,20.0,30.39,NNW,342,3.0,5.0,60,0.00,,,0.00,Wunderground v.1.15,2013-01-17 20:57:00,
2013-01-17 15:01:00,32.5,20.1,30.39,NNW,333,3.0,5.0,60,0.00,,,0.00,Wunderground v.1.15,2013-01-17 21:01:00,
2013-01-17 15:02:00,32.5,20.1,30.39,NW,324,3.0,5.0,60,0.00,,,0.00,Wunderground v.1.15,2013-01-17 21:02:00,
2013-01-17 15:06:00,32.4,19.7,30.39,North,357,3.0,5.0,59,0.00,,,0.00,Wunderground v.1.15,2013-01-17 21:06:00,
2013-01-17 15:07:00,32.3,19.2,30.39,North,349,3.0,5.0,58,0.00,,,0.00,Wunderground v.1.15,2013-01-17 21:07:00,
2013-01-17 15:09:00,32.2,19.5,30.39,NNW,338,3.0,4.0,59,0.00,,,0.00,Wunderground v.1.15,2013-01-17 21:09:00,
2013-01-17 15:11:00,32.1,19.8,30.39,NNE,23,3.0,5.0,60,0.00,,,0.00,Wunderground v.1.15,2013-01-17 21:11:00,
2013-01-17 15:14:00,32.1,19.4,30.39,NNW,342,4.0,7.0,59,0.00,,,0.00,Wunderground v.1.15,2013-01-17 21:14:00,
2013-01-17 15:16:00,32.1,20.2,30.39,NW,304,3.0,7.0,61,0.00,,,0.00,Wunderground v.1.15,2013-01-17 21:16:00,
2013-01-17 15:17:00,32.1,19.8,30.39,North,8,3.0,7.0,60,0.00,,,0.00,Wunderground v.1.15,2013-01-17 21:17:00,
2013-01-17 15:20:00,32.1,19.4,30.39,NNE,20,3.0,4.0,59,0.00,,,0.00,Wunderground v.1.15,2013-01-17 21:20:00,
2013-01-17 15:22:00,32.0,19.3,30.39,NNW,331,3.0,5.0,59,0.00,,,0.00,Wunderground v.1.15,2013-01-17 21:22:00,
2013-01-17 15:23:00,32.0,19.3,30.39,North,354,3.0,5.0,59,0.00,,,0.00,Wunderground v.1.15,2013-01-17 21:23:00,
2013-01-17 15:25:00,32.0,19.7,30.39,NNW,338,3.0,5.0,60,0.00,,,0.00,Wunderground v.1.15,2013-01-17 21:25:00,
2013-01-17 15:26:00,32.1,20.2,30.39,NNW,330,3.0,5.0,61,0.00,,,0.00,Wunderground v.1.15,2013-01-17 21:26:00,
2013-01-17 15:30:00,32.1,19.8,30.40,NNW,327,2.0,3.0,60,0.00,,,0.00,Wunderground v.1.15,2013-01-17 21:30:00,
2013-01-17 15:33:00,32.1,19.8,30.40,NW,316,2.0,3.0,60,0.00,,,0.00,Wunderground v.1.15,2013-01-17 21:33:00,
2013-01-17 15:34:00,32.1,20.2,30.40,NNW,335,2.0,3.0,61,0.00,,,0.00,Wunderground v.1.15,2013-01-17 21:34:00,
2013-01-17 15:38:00,32.3,20.3,30.40,WNW,288,1.0,3.0,61,0.00,,,0.00,Wunderground v.1.15,2013-01-17 21:38:00,
2013-01-17 15:39:00,32.2,20.2,30.40,NNW,346,1.0,1.0,61,0.00,,,0.00,Wunderground v.1.15,2013-01-17 21:39:00,
2013-01-17 15:42:00,32.2,19.9,30.40,NNW,344,1.0,1.0,60,0.00,,,0.00,Wunderground v.1.15,2013-01-17 21:42:00,
2013-01-17 15:43:00,32.2,20.6,30.40,NW,309,1.0,1.0,62,0.00,,,0.00,Wunderground v.1.15,2013-01-17 21:43:00,
2013-01-17 15:46:00,32.2,19.9,30.40,NW,311,1.0,6.0,60,0.00,,,0.00,Wunderground v.1.15,2013-01-17 21:46:00,
2013-01-17 15:47:00,32.1,19.8,30.40,NNW,340,1.0,6.0,60,0.00,,,0.00,Wunderground v.1.15,2013-01-17 21:47:00,
2013-01-17 15:50:00,32.1,20.2,30.40,WNW,295,2.0,2.0,61,0.00,,,0.00,Wunderground v.1.15,2013-01-17 21:50:00,
2013-01-17 15:51:00,32.0,20.1,30.40,NNW,344,2.0,3.0,61,0.00,,,0.00,Wunderground v.1.15,2013-01-17 21:51:00,
2013-01-17 15:52:00,32.0,20.1,30.40,NNW,340,2.0,3.0,61,0.00,,,0.00,Wunderground v.1.15,2013-01-17 21:52:00,
2013-01-17 15:55:00,31.9,19.6,30.40,WNW,302,3.0,3.0,60,0.00,,,0.00,Wunderground v.1.15,2013-01-17 21:55:00,
2013-01-17 15:56:00,31.8,19.5,30.40,NNW,332,2.0,4.0,60,0.00,,,0.00,Wunderground v.1.15,2013-01-17 21:56:00,
2013-01-17 15:59:00,31.9,20.3,30.40,North,4,2.0,4.0,62,0.00,,,0.00,Wunderground v.1.15,2013-01-17 21:59:00,
2013-01-17 16:01:00,31.8,19.9,30.40,NW,315,2.0,2.0,61,0.00,,,0.00,Wunderground v.1.15,2013-01-17 22:01:00,
2013-01-17 16:03:00,31.8,19.9,30.40,NNW,333,2.0,2.0,61,0.00,,,0.00,Wunderground v.1.15,2013-01-17 22:03:00,
2013-01-17 16:07:00,31.8,20.3,30.40,NW,321,1.0,2.0,62,0.00,,,0.00,Wunderground v.1.15,2013-01-17 22:07:00,
2013-01-17 16:08:00,31.7,20.5,30.40,NW,318,1.0,2.0,63,0.00,,,0.00,Wunderground v.1.15,2013-01-17 22:08:00,
2013-01-17 16:12:00,31.7,20.5,30.40,NW,318,1.0,1.0,63,0.00,,,0.00,Wunderground v.1.15,2013-01-17 22:12:00,
2013-01-17 16:13:00,31.7,20.2,30.40,NW,304,0.0,1.0,62,0.00,,,0.00,Wunderground v.1.15,2013-01-17 22:13:00,
2013-01-17 16:16:00,31.7,20.5,30.40,WNW,296,0.0,1.0,63,0.00,,,0.00,Wunderground v.1.15,2013-01-17 22:16:00,
2013-01-17 16:17:00,31.7,20.5,30.40,NNW,339,0.0,1.0,63,0.00,,,0.00,Wunderground v.1.15,2013-01-17 22:17:00,
2013-01-17 16:18:00,31.7,20.5,30.40,NW,307,0.0,1.0,63,0.00,,,0.00,Wunderground v.1.15,2013-01-17 22:18:00,
2013-01-17 16:21:00,31.6,20.4,30.40,NNW,342,0.0,1.0,63,0.00,,,0.00,Wunderground v.1.15,2013-01-17 22:21:00,
2013-01-17 16:22:00,31.6,20.4,30.40,NNW,342,0.0,1.0,63,0.00,,,0.00,Wunderground v.1.15,2013-01-17 22:22:00,
2013-01-17 16:25:00,31.4,20.2,30.40,NNW,335,0.0,1.0,63,0.00,,,0.00,Wunderground v.1.15,2013-01-17 22:25:00,
2013-01-17 16:27:00,31.3,20.5,30.40,WNW,301,0.0,1.0,64,0.00,,,0.00,Wunderground v.1.15,2013-01-17 22:27:00,
2013-01-17 16:29:00,31.3,20.5,30.40,North,358,0.0,1.0,64,0.00,,,0.00,Wunderground v.1.15,2013-01-17 22:29:00,
2013-01-17 16:30:00,31.3,20.5,30.40,NNW,333,0.0,0.0,64,0.00,,,0.00,Wunderground v.1.15,2013-01-17 22:30:00,
2013-01-17 16:31:00,31.3,20.5,30.40,NNW,334,0.0,0.0,64,0.00,,,0.00,Wunderground v.1.15,2013-01-17 22:31:00,
2013-01-17 16:34:00,31.3,21.3,30.40,NW,321,0.0,0.0,66,0.00,,,0.00,Wunderground v.1.15,2013-01-17 22:34:00,
2013-01-17 16:35:00,31.2,21.2,30.40,NW,318,0.0,0.0,66,0.00,,,0.00,Wunderground v.1.15,2013-01-17 22:35:00,
2013-01-17 16:37:00,31.2,21.2,30.40,NW,314,0.0,0.0,66,0.00,,,0.00,Wunderground v.1.15,2013-01-17 22:37:00,
2013-01-17 16:38:00,31.2,20.8,30.41,NW,314,0.0,0.0,65,0.00,,,0.00,Wunderground v.1.15,2013-01-17 22:38:00,
2013-01-17 16:42:00,31.2,20.8,30.41,NW,314,0.0,0.0,65,0.00,,,0.00,Wunderground v.1.15,2013-01-17 22:42:00,
2013-01-17 16:43:00,31.2,21.2,30.41,NNW,327,0.0,0.0,66,0.00,,,0.00,Wunderground v.1.15,2013-01-17 22:43:00,
2013-01-17 16:44:00,31.1,21.1,30.41,NW,315,0.0,0.0,66,0.00,,,0.00,Wunderground v.1.15,2013-01-17 22:44:00,
2013-01-17 16:46:00,31.0,21.0,30.41,NW,324,0.0,0.0,66,0.00,,,0.00,Wunderground v.1.15,2013-01-17 22:46:00,
2013-01-17 16:48:00,30.9,20.9,30.41,WNW,297,0.0,0.0,66,0.00,,,0.00,Wunderground v.1.15,2013-01-17 22:48:00,
2013-01-17 16:49:00,30.8,20.4,30.41,NW,304,0.0,0.0,65,0.00,,,0.00,Wunderground v.1.15,2013-01-17 22:49:00,
2013-01-17 16:51:00,30.6,20.6,30.41,NW,304,0.0,0.0,66,0.00,,,0.00,Wunderground v.1.15,2013-01-17 22:51:00,
2013-01-17 16:55:00,30.2,20.9,30.41,NW,305,0.0,0.0,68,0.00,,,0.00,Wunderground v.1.15,2013-01-17 22:55:00,
2013-01-17 16:56:00,30.1,20.8,30.41,NW,305,0.0,0.0,68,0.00,,,0.00,Wunderground v.1.15,2013-01-17 22:56:00,
2013-01-17 17:01:00,29.6,20.7,30.41,WNW,290,0.0,0.0,69,0.00,,,0.00,Wunderground v.1.15,2013-01-17 23:01:00,
2013-01-17 17:03:00,29.4,20.5,30.41,WNW,295,0.0,0.0,69,0.00,,,0.00,Wunderground v.1.15,2013-01-17 23:03:00,
2013-01-17 17:04:00,29.2,20.3,30.41,WNW,295,0.0,0.0,69,0.00,,,0.00,Wunderground v.1.15,2013-01-17 23:04:00,
2013-01-17 17:06:00,29.0,20.4,30.41,NW,318,0.0,0.0,70,0.00,,,0.00,Wunderground v.1.15,2013-01-17 23:06:00,
2013-01-17 17:09:00,28.7,20.5,30.41,NW,318,0.0,0.0,71,0.00,,,0.00,Wunderground v.1.15,2013-01-17 23:09:00,
2013-01-17 17:10:00,28.6,20.4,30.41,NW,320,0.0,0.0,71,0.00,,,0.00,Wunderground v.1.15,2013-01-17 23:10:00,
2013-01-17 17:12:00,28.4,20.5,30.41,NW,321,0.0,0.0,72,0.00,,,0.00,Wunderground v.1.15,2013-01-17 23:12:00,
2013-01-17 17:14:00,28.2,20.3,30.41,NW,324,0.0,0.0,72,0.00,,,0.00,Wunderground v.1.15,2013-01-17 23:14:00,
2013-01-17 17:15:00,28.1,20.6,30.41,NW,324,0.0,0.0,73,0.00,,,0.00,Wunderground v.1.15,2013-01-17 23:15:00,
2013-01-17 17:17:00,27.9,20.4,30.41,NW,324,0.0,0.0,73,0.00,,,0.00,Wunderground v.1.15,2013-01-17 23:17:00,
2013-01-17 17:19:00,27.7,20.2,30.41,NW,325,0.0,0.0,73,0.00,,,0.00,Wunderground v.1.15,2013-01-17 23:19:00,
2013-01-17 17:21:00,27.6,20.1,30.42,NW,325,0.0,0.0,73,0.00,,,0.00,Wunderground v.1.15,2013-01-17 23:21:00,
2013-01-17 17:22:00,27.6,20.1,30.42,NW,325,0.0,0.0,73,0.00,,,0.00,Wunderground v.1.15,2013-01-17 23:22:00,
2013-01-17 17:23:00,27.5,20.3,30.42,NW,322,0.0,0.0,74,0.00,,,0.00,Wunderground v.1.15,2013-01-17 23:23:00,
2013-01-17 17:27:00,27.3,20.1,30.42,NW,322,0.0,0.0,74,0.00,,,0.00,Wunderground v.1.15,2013-01-17 23:27:00,
2013-01-17 17:28:00,27.3,20.1,30.42,NW,322,0.0,0.0,74,0.00,,,0.00,Wunderground v.1.15,2013-01-17 23:28:00,
2013-01-17 17:29:00,27.2,20.0,30.42,NW,322,0.0,0.0,74,0.00,,,0.00,Wunderground v.1.15,2013-01-17 23:29:00,
2013-01-17 17:33:00,27.0,19.8,30.42,NW,322,0.0,0.0,74,0.00,,,0.00,Wunderground v.1.15,2013-01-17 23:33:00,
2013-01-17 17:35:00,26.9,19.7,30.42,NW,322,0.0,0.0,74,0.00,,,0.00,Wunderground v.1.15,2013-01-17 23:35:00,
2013-01-17 17:37:00,26.9,20.0,30.42,NW,322,0.0,0.0,75,0.00,,,0.00,Wunderground v.1.15,2013-01-17 23:37:00,
2013-01-17 17:38:00,26.8,19.9,30.42,NW,322,0.0,0.0,75,0.00,,,0.00,Wunderground v.1.15,2013-01-17 23:38:00,
2013-01-17 17:40:00,26.8,19.9,30.42,NW,322,0.0,0.0,75,0.00,,,0.00,Wunderground v.1.15,2013-01-17 23:40:00,
2013-01-17 17:43:00,26.7,19.8,30.42,NW,322,0.0,0.0,75,0.00,,,0.00,Wunderground v.1.15,2013-01-17 23:43:00,
2013-01-17 17:44:00,26.6,19.7,30.42,NW,322,0.0,0.0,75,0.00,,,0.00,Wunderground v.1.15,2013-01-17 23:44:00,
2013-01-17 17:46:00,26.6,19.7,30.42,NW,322,0.0,0.0,75,0.00,,,0.00,Wunderground v.1.15,2013-01-17 23:46:00,
2013-01-17 17:48:00,26.5,19.6,30.42,NW,322,0.0,0.0,75,0.00,,,0.00,Wunderground v.1.15,2013-01-17 23:48:00,
2013-01-17 17:49:00,26.5,19.6,30.42,NW,322,0.0,0.0,75,0.00,,,0.00,Wunderground v.1.15,2013-01-17 23:49:00,
2013-01-17 17:53:00,26.3,19.8,30.42,NW,322,0.0,0.0,76,0.00,,,0.00,Wunderground v.1.15,2013-01-17 23:53:00,
2013-01-17 17:54:00,26.3,19.8,30.42,NW,322,0.0,0.0,76,0.00,,,0.00,Wunderground v.1.15,2013-01-17 23:54:00,
2013-01-17 17:56:00,26.3,19.8,30.42,NW,322,0.0,0.0,76,0.00,,,0.00,Wunderground v.1.15,2013-01-17 23:56:00,
2013-01-17 17:58:00,26.3,19.8,30.42,NW,322,0.0,0.0,76,0.00,,,0.00,Wunderground v.1.15,2013-01-17 23:58:00,
2013-01-17 18:01:00,26.2,19.7,30.42,NW,322,0.0,0.0,76,0.00,,,0.00,Wunderground v.1.15,2013-01-18 00:01:00,
2013-01-17 18:02:00,26.1,19.6,30.42,NW,322,0.0,0.0,76,0.00,,,0.00,Wunderground v.1.15,2013-01-18 00:02:00,
2013-01-17 18:03:00,26.1,19.6,30.42,NW,322,0.0,0.0,76,0.00,,,0.00,Wunderground v.1.15,2013-01-18 00:03:00,
2013-01-17 18:06:00,26.0,19.5,30.42,NW,322,0.0,0.0,76,0.00,,,0.00,Wunderground v.1.15,2013-01-18 00:06:00,
2013-01-17 18:07:00,26.1,19.6,30.42,NW,322,0.0,0.0,76,0.00,,,0.00,Wunderground v.1.15,2013-01-18 00:07:00,
2013-01-17 18:11:00,25.9,19.7,30.42,NW,322,0.0,0.0,77,0.00,,,0.00,Wunderground v.1.15,2013-01-18 00:11:00,
2013-01-17 18:13:00,25.8,19.6,30.42,NW,322,0.0,0.0,77,0.00,,,0.00,Wunderground v.1.15,2013-01-18 00:13:00,
2013-01-17 18:14:00,25.8,19.9,30.42,NW,322,0.0,0.0,78,0.00,,,0.00,Wunderground v.1.15,2013-01-18 00:14:00,
2013-01-17 18:15:00,25.8,19.9,30.42,NW,322,0.0,0.0,78,0.00,,,0.00,Wunderground v.1.15,2013-01-18 00:15:00,
2013-01-17 18:16:00,25.8,19.9,30.42,West,267,0.0,0.0,78,0.00,,,0.00,Wunderground v.1.15,2013-01-18 00:16:00,
2013-01-17 18:18:00,25.9,20.3,30.43,West,262,0.0,0.0,79,0.00,,,0.00,Wunderground v.1.15,2013-01-18 00:18:00,
2013-01-17 18:19:00,25.9,20.3,30.43,West,262,0.0,0.0,79,0.00,,,0.00,Wunderground v.1.15,2013-01-18 00:19:00,
2013-01-17 18:21:00,26.0,20.4,30.42,West,262,0.0,0.0,79,0.00,,,0.00,Wunderground v.1.15,2013-01-18 00:21:00,
2013-01-17 18:24:00,26.1,20.5,30.43,West,261,0.0,0.0,79,0.00,,,0.00,Wunderground v.1.15,2013-01-18 00:24:00,
2013-01-17 18:25:00,26.0,20.4,30.42,West,262,0.0,0.0,79,0.00,,,0.00,Wunderground v.1.15,2013-01-18 00:25:00,
2013-01-17 18:26:00,26.0,20.1,30.42,West,262,0.0,0.0,78,0.00,,,0.00,Wunderground v.1.15,2013-01-18 00:26:00,
2013-01-17 18:30:00,25.7,19.5,30.43,West,262,0.0,0.0,77,0.00,,,0.00,Wunderground v.1.15,2013-01-18 00:30:00,
2013-01-17 18:31:00,25.7,19.5,30.43,West,262,0.0,0.0,77,0.00,,,0.00,Wunderground v.1.15,2013-01-18 00:31:00,
2013-01-17 18:32:00,25.5,19.3,30.43,West,262,0.0,0.0,77,0.00,,,0.00,Wunderground v.1.15,2013-01-18 00:32:00,
2013-01-17 18:37:00,25.1,18.9,30.43,West,262,0.0,0.0,77,0.00,,,0.00,Wunderground v.1.15,2013-01-18 00:37:00,
2013-01-17 18:39:00,24.8,18.6,30.43,West,262,0.0,0.0,77,0.00,,,0.00,Wunderground v.1.15,2013-01-18 00:39:00,
2013-01-17 18:40:00,24.8,18.9,30.43,West,261,0.0,0.0,78,0.00,,,0.00,Wunderground v.1.15,2013-01-18 00:40:00,
2013-01-17 18:45:00,24.5,18.6,30.43,West,262,0.0,0.0,78,0.00,,,0.00,Wunderground v.1.15,2013-01-18 00:45:00,
2013-01-17 18:49:00,24.3,18.7,30.43,West,262,0.0,0.0,79,0.00,,,0.00,Wunderground v.1.15,2013-01-18 00:49:00,
2013-01-17 18:50:00,24.2,18.6,30.43,West,262,0.0,0.0,79,0.00,,,0.00,Wunderground v.1.15,2013-01-18 00:50:00,
2013-01-17 18:52:00,24.1,18.5,30.44,West,262,0.0,0.0,79,0.00,,,0.00,Wunderground v.1.15,2013-01-18 00:52:00,
2013-01-17 18:53:00,24.1,18.5,30.44,West,262,0.0,0.0,79,0.00,,,0.00,Wunderground v.1.15,2013-01-18 00:53:00,
2013-01-17 18:56:00,24.0,18.4,30.44,West,262,0.0,0.0,79,0.00,,,0.00,Wunderground v.1.15,2013-01-18 00:56:00,
2013-01-17 18:57:00,24.0,18.4,30.44,West,262,0.0,0.0,79,0.00,,,0.00,Wunderground v.1.15,2013-01-18 00:57:00,
2013-01-17 18:58:00,24.0,18.7,30.44,West,262,0.0,0.0,80,0.00,,,0.00,Wunderground v.1.15,2013-01-18 00:58:00,
2013-01-17 19:03:00,24.1,18.8,30.44,West,262,0.0,0.0,80,0.00,,,0.00,Wunderground v.1.15,2013-01-18 01:03:00,
2013-01-17 19:05:00,24.1,19.1,30.44,West,262,0.0,0.0,81,0.00,,,0.00,Wunderground v.1.15,2013-01-18 01:05:00,
2013-01-17 19:06:00,24.1,19.1,30.44,West,262,0.0,0.0,81,0.00,,,0.00,Wunderground v.1.15,2013-01-18 01:06:00,
2013-01-17 19:10:00,24.0,19.0,30.44,West,262,0.0,0.0,81,0.00,,,0.00,Wunderground v.1.15,2013-01-18 01:10:00,
2013-01-17 19:11:00,24.0,19.0,30.44,West,262,0.0,0.0,81,0.00,,,0.00,Wunderground v.1.15,2013-01-18 01:11:00,
2013-01-17 19:13:00,23.9,18.9,30.44,West,262,0.0,0.0,81,0.00,,,0.00,Wunderground v.1.15,2013-01-18 01:13:00,
2013-01-17 19:14:00,23.9,18.6,30.44,West,262,0.0,0.0,80,0.00,,,0.00,Wunderground v.1.15,2013-01-18 01:14:00,
2013-01-17 19:16:00,23.7,18.4,30.44,West,262,0.0,0.0,80,0.00,,,0.00,Wunderground v.1.15,2013-01-18 01:16:00,
2013-01-17 19:17:00,23.6,18.3,30.44,West,262,0.0,0.0,80,0.00,,,0.00,Wunderground v.1.15,2013-01-18 01:17:00,
2013-01-17 19:19:00,23.5,18.2,30.44,West,261,0.0,0.0,80,0.00,,,0.00,Wunderground v.1.15,2013-01-18 01:19:00,
2013-01-17 19:22:00,23.3,18.0,30.44,West,262,0.0,0.0,80,0.00,,,0.00,Wunderground v.1.15,2013-01-18 01:22:00,
2013-01-17 19:25:00,22.9,17.9,30.44,West,262,0.0,0.0,81,0.00,,,0.00,Wunderground v.1.15,2013-01-18 01:25:00,
2013-01-17 19:26:00,22.9,17.9,30.44,West,262,0.0,0.0,81,0.00,,,0.00,Wunderground v.1.15,2013-01-18 01:26:00,
2013-01-17 19:28:00,22.8,18.1,30.44,West,262,0.0,0.0,82,0.00,,,0.00,Wunderground v.1.15,2013-01-18 01:28:00,
2013-01-17 19:30:00,22.7,18.3,30.44,West,262,0.0,0.0,83,0.00,,,0.00,Wunderground v.1.15,2013-01-18 01:30:00,
2013-01-17 19:32:00,22.7,18.6,30.44,West,262,0.0,0.0,84,0.00,,,0.00,Wunderground v.1.15,2013-01-18 01:32:00,
2013-01-17 19:34:00,22.6,18.5,30.44,West,262,0.0,0.0,84,0.00,,,0.00,Wunderground v.1.15,2013-01-18 01:34:00,
2013-01-17 19:37:00,22.5,18.7,30.44,West,262,0.0,0.0,85,0.00,,,0.00,Wunderground v.1.15,2013-01-18 01:37:00,
2013-01-17 19:39:00,22.6,19.0,30.45,West,262,0.0,0.0,86,0.00,,,0.00,Wunderground v.1.15,2013-01-18 01:39:00,
2013-01-17 19:42:00,22.7,19.4,30.44,West,262,0.0,0.0,87,0.00,,,0.00,Wunderground v.1.15,2013-01-18 01:42:00,
2013-01-17 19:43:00,22.7,19.4,30.44,West,262,0.0,0.0,87,0.00,,,0.00,Wunderground v.1.15,2013-01-18 01:43:00,
2013-01-17 19:44:00,22.7,19.1,30.44,West,262,0.0,0.0,86,0.00,,,0.00,Wunderground v.1.15,2013-01-18 01:44:00,
2013-01-17 19:47:00,22.7,19.1,30.45,West,262,0.0,0.0,86,0.00,,,0.00,Wunderground v.1.15,2013-01-18 01:47:00,
2013-01-17 19:48:00,22.6,19.0,30.44,West,262,0.0,0.0,86,0.00,,,0.00,Wunderground v.1.15,2013-01-18 01:48:00,
2013-01-17 19:51:00,22.6,19.0,30.44,West,262,0.0,0.0,86,0.00,,,0.00,Wunderground v.1.15,2013-01-18 01:51:00,
2013-01-17 19:55:00,22.7,19.1,30.44,West,262,0.0,0.0,86,0.00,,,0.00,Wunderground v.1.15,2013-01-18 01:55:00,
2013-01-17 19:56:00,22.6,19.0,30.45,West,262,0.0,0.0,86,0.00,,,0.00,Wunderground v.1.15,2013-01-18 01:56:00,
2013-01-17 20:00:00,22.4,18.6,30.45,West,262,0.0,0.0,85,0.00,,,0.00,Wunderground v.1.15,2013-01-18 02:00:00,
2013-01-17 20:01:00,22.4,18.6,30.45,West,262,0.0,0.0,85,0.00,,,0.00,Wunderground v.1.15,2013-01-18 02:01:00,
2013-01-17 20:04:00,22.3,18.7,30.45,West,262,0.0,0.0,86,0.00,,,0.00,Wunderground v.1.15,2013-01-18 02:04:00,
2013-01-17 20:08:00,22.5,19.2,30.45,West,263,0.0,0.0,87,0.00,,,0.00,Wunderground v.1.15,2013-01-18 02:08:00,
2013-01-17 20:09:00,22.6,19.3,30.45,West,263,0.0,0.0,87,0.00,,,0.00,Wunderground v.1.15,2013-01-18 02:09:00,
2013-01-17 20:12:00,22.9,19.6,30.45,WSW,246,0.0,0.0,87,0.00,,,0.00,Wunderground v.1.15,2013-01-18 02:12:00,
2013-01-17 20:13:00,23.1,19.5,30.45,WSW,246,0.0,0.0,86,0.00,,,0.00,Wunderground v.1.15,2013-01-18 02:13:00,
2013-01-17 20:16:00,23.3,19.5,30.45,WSW,246,0.0,0.0,85,0.00,,,0.00,Wunderground v.1.15,2013-01-18 02:16:00,
2013-01-17 20:17:00,23.4,19.6,30.45,WSW,246,0.0,0.0,85,0.00,,,0.00,Wunderground v.1.15,2013-01-18 02:17:00,
2013-01-17 20:18:00,23.5,19.7,30.45,West,262,0.0,0.0,85,0.00,,,0.00,Wunderground v.1.15,2013-01-18 02:18:00,
2013-01-17 20:20:00,23.6,19.8,30.45,WSW,257,0.0,0.0,85,0.00,,,0.00,Wunderground v.1.15,2013-01-18 02:20:00,
2013-01-17 20:21:00,23.7,19.6,30.45,West,271,0.0,0.0,84,0.00,,,0.00,Wunderground v.1.15,2013-01-18 02:21:00,
2013-01-17 20:22:00,23.8,19.7,30.45,West,270,0.0,0.0,84,0.00,,,0.00,Wunderground v.1.15,2013-01-18 02:22:00,
2013-01-17 20:24:00,23.9,19.5,30.45,West,280,0.0,0.0,83,0.00,,,0.00,Wunderground v.1.15,2013-01-18 02:24:00,
2013-01-17 20:25:00,23.9,19.5,30.45,West,269,0.0,0.0,83,0.00,,,0.00,Wunderground v.1.15,2013-01-18 02:25:00,
2013-01-17 20:26:00,24.0,19.6,30.45,West,267,0.0,0.0,83,0.00,,,0.00,Wunderground v.1.15,2013-01-18 02:26:00,
2013-01-17 20:29:00,24.1,19.4,30.45,West,264,0.0,0.0,82,0.00,,,0.00,Wunderground v.1.15,2013-01-18 02:29:00,
2013-01-17 20:31:00,24.3,19.3,30.45,West,276,0.0,0.0,81,0.00,,,0.00,Wunderground v.1.15,2013-01-18 02:31:00,
2013-01-17 20:35:00,24.3,19.0,30.45,West,275,0.0,0.0,80,0.00,,,0.00,Wunderground v.1.15,2013-01-18 02:35:00,
2013-01-17 20:36:00,24.2,18.9,30.45,West,276,0.0,0.0,80,0.00,,,0.00,Wunderground v.1.15,2013-01-18 02:36:00,
2013-01-17 20:37:00,24.2,18.9,30.45,West,276,0.0,0.0,80,0.00,,,0.00,Wunderground v.1.15,2013-01-18 02:37:00,
2013-01-17 20:41:00,24.1,18.8,30.45,West,273,0.0,0.0,80,0.00,,,0.00,Wunderground v.1.15,2013-01-18 02:41:00,
2013-01-17 20:43:00,23.9,18.6,30.45,West,271,0.0,0.0,80,0.00,,,0.00,Wunderground v.1.15,2013-01-18 02:43:00,
2013-01-17 20:44:00,23.9,18.6,30.45,West,271,0.0,0.0,80,0.00,,,0.00,Wunderground v.1.15,2013-01-18 02:44:00,
2013-01-17 20:46:00,23.9,18.6,30.45,West,272,0.0,0.0,80,0.00,,,0.00,Wunderground v.1.15,2013-01-18 02:46:00,
2013-01-17 20:51:00,23.6,18.6,30.45,West,273,0.0,0.0,81,0.00,,,0.00,Wunderground v.1.15,2013-01-18 02:51:00,
2013-01-17 20:52:00,23.5,18.5,30.45,West,273,0.0,0.0,81,0.00,,,0.00,Wunderground v.1.15,2013-01-18 02:52:00,
2013-01-17 20:54:00,23.4,18.4,30.45,West,272,0.0,0.0,81,0.00,,,0.00,Wunderground v.1.15,2013-01-18 02:54:00,
2013-01-17 20:56:00,23.2,18.2,30.45,West,273,0.0,0.0,81,0.00,,,0.00,Wunderground v.1.15,2013-01-18 02:56:00,
2013-01-17 20:57:00,23.2,18.2,30.45,West,272,0.0,0.0,81,0.00,,,0.00,Wunderground v.1.15,2013-01-18 02:57:00,
2013-01-17 20:58:00,23.1,18.1,30.45,West,271,0.0,0.0,81,0.00,,,0.00,Wunderground v.1.15,2013-01-18 02:58:00,
2013-01-17 20:59:00,23.0,18.3,30.45,West,273,0.0,0.0,82,0.00,,,0.00,Wunderground v.1.15,2013-01-18 02:59:00,
2013-01-17 21:02:00,22.9,18.2,30.45,West,273,0.0,0.0,82,0.00,,,0.00,Wunderground v.1.15,2013-01-18 03:02:00,
2013-01-17 21:04:00,22.8,18.1,30.45,West,271,0.0,0.0,82,0.00,,,0.00,Wunderground v.1.15,2013-01-18 03:04:00,
2013-01-17 21:05:00,22.7,18.0,30.45,West,273,0.0,0.0,82,0.00,,,0.00,Wunderground v.1.15,2013-01-18 03:05:00,
2013-01-17 21:07:00,22.6,17.9,30.45,West,273,0.0,0.0,82,0.00,,,0.00,Wunderground v.1.15,2013-01-18 03:07:00,
2013-01-17 21:10:00,22.3,17.6,30.46,West,273,0.0,0.0,82,0.00,,,0.00,Wunderground v.1.15,2013-01-18 03:10:00,
2013-01-17 21:11:00,22.3,17.9,30.45,West,273,0.0,0.0,83,0.00,,,0.00,Wunderground v.1.15,2013-01-18 03:11:00,
2013-01-17 21:13:00,22.1,17.7,30.46,West,271,0.0,0.0,83,0.00,,,0.00,Wunderground v.1.15,2013-01-18 03:13:00,
2013-01-17 21:15:00,22.1,17.7,30.45,West,273,0.0,0.0,83,0.00,,,0.00,Wunderground v.1.15,2013-01-18 03:15:00,
2013-01-17 21:18:00,21.9,17.5,30.45,West,273,0.0,0.0,83,0.00,,,0.00,Wunderground v.1.15,2013-01-18 03:18:00,
2013-01-17 21:19:00,21.9,17.2,30.45,West,273,0.0,0.0,82,0.00,,,0.00,Wunderground v.1.15,2013-01-18 03:19:00,
2013-01-17 21:20:00,21.8,17.2,30.46,West,273,0.0,0.0,82,0.00,,,0.00,Wunderground v.1.15,2013-01-18 03:20:00,
2013-01-17 21:24:00,21.5,17.1,30.46,West,273,0.0,0.0,83,0.00,,,0.00,Wunderground v.1.15,2013-01-18 03:24:00,
2013-01-17 21:25:00,21.5,17.1,30.46,West,272,0.0,0.0,83,0.00,,,0.00,Wunderground v.1.15,2013-01-18 03:25:00,
2013-01-17 21:26:00,21.4,17.0,30.45,West,273,0.0,0.0,83,0.00,,,0.00,Wunderground v.1.15,2013-01-18 03:26:00,
2013-01-17 21:27:00,21.3,16.9,30.45,West,271,0.0,0.0,83,0.00,,,0.00,Wunderground v.1.15,2013-01-18 03:27:00,
2013-01-17 21:30:00,21.3,16.9,30.45,West,273,0.0,0.0,83,0.00,,,0.00,Wunderground v.1.15,2013-01-18 03:30:00,
2013-01-17 21:32:00,21.2,16.8,30.46,West,272,0.0,0.0,83,0.00,,,0.00,Wunderground v.1.15,2013-01-18 03:32:00,
2013-01-17 21:33:00,21.1,16.7,30.46,West,271,0.0,0.0,83,0.00,,,0.00,Wunderground v.1.15,2013-01-18 03:33:00,
2013-01-17 21:36:00,21.0,16.6,30.45,West,273,0.0,0.0,83,0.00,,,0.00,Wunderground v.1.15,2013-01-18 03:36:00,
2013-01-17 21:37:00,20.9,16.8,30.45,West,271,0.0,0.0,84,0.00,,,0.00,Wunderground v.1.15,2013-01-18 03:37:00,
2013-01-17 21:40:00,20.8,16.7,30.45,West,273,0.0,0.0,84,0.00,,,0.00,Wunderground v.1.15,2013-01-18 03:40:00,
2013-01-17 21:41:00,20.8,16.7,30.45,West,273,0.0,0.0,84,0.00,,,0.00,Wunderground v.1.15,2013-01-18 03:41:00,
2013-01-17 21:42:00,20.7,16.6,30.45,West,273,0.0,0.0,84,0.00,,,0.00,Wunderground v.1.15,2013-01-18 03:42:00,
2013-01-17 21:44:00,20.6,16.5,30.45,West,273,0.0,0.0,84,0.00,,,0.00,Wunderground v.1.15,2013-01-18 03:44:00,
2013-01-17 21:46:00,20.6,16.5,30.45,West,272,0.0,0.0,84,0.00,,,0.00,Wunderground v.1.15,2013-01-18 03:46:00,
2013-01-17 21:47:00,20.5,16.7,30.45,West,273,0.0,0.0,85,0.00,,,0.00,Wunderground v.1.15,2013-01-18 03:47:00,
2013-01-17 21:49:00,20.5,16.7,30.45,West,272,0.0,0.0,85,0.00,,,0.00,Wunderground v.1.15,2013-01-18 03:49:00,
2013-01-17 21:51:00,20.5,16.7,30.45,West,273,0.0,0.0,85,0.00,,,0.00,Wunderground v.1.15,2013-01-18 03:51:00,
2013-01-17 21:53:00,20.4,16.6,30.45,West,271,0.0,0.0,85,0.00,,,0.00,Wunderground v.1.15,2013-01-18 03:53:00,
2013-01-17 21:56:00,20.3,16.5,30.45,West,273,0.0,0.0,85,0.00,,,0.00,Wunderground v.1.15,2013-01-18 03:56:00,
2013-01-17 21:57:00,20.2,16.4,30.45,West,271,0.0,0.0,85,0.00,,,0.00,Wunderground v.1.15,2013-01-18 03:57:00,
2013-01-17 21:58:00,20.3,16.8,30.45,West,271,0.0,0.0,86,0.00,,,0.00,Wunderground v.1.15,2013-01-18 03:58:00,
2013-01-17 22:02:00,20.4,16.9,30.45,West,271,0.0,0.0,86,0.00,,,0.00,Wunderground v.1.15,2013-01-18 04:02:00,
2013-01-17 22:04:00,20.4,16.9,30.45,West,271,0.0,0.0,86,0.00,,,0.00,Wunderground v.1.15,2013-01-18 04:04:00,
2013-01-17 22:06:00,20.4,16.9,30.45,West,271,0.0,0.0,86,0.00,,,0.00,Wunderground v.1.15,2013-01-18 04:06:00,
2013-01-17 22:07:00,20.5,17.2,30.45,West,271,0.0,0.0,87,0.00,,,0.00,Wunderground v.1.15,2013-01-18 04:07:00,
2013-01-17 22:10:00,20.5,17.2,30.45,West,268,0.0,0.0,87,0.00,,,0.00,Wunderground v.1.15,2013-01-18 04:10:00,
2013-01-17 22:11:00,20.5,17.2,30.45,West,269,0.0,0.0,87,0.00,,,0.00,Wunderground v.1.15,2013-01-18 04:11:00,
2013-01-17 22:15:00,20.4,16.9,30.45,West,269,0.0,0.0,86,0.00,,,0.00,Wunderground v.1.15,2013-01-18 04:15:00,
2013-01-17 22:16:00,20.4,16.9,30.45,West,269,0.0,0.0,86,0.00,,,0.00,Wunderground v.1.15,2013-01-18 04:16:00,
2013-01-17 22:17:00,20.4,17.1,30.45,West,269,0.0,0.0,87,0.00,,,0.00,Wunderground v.1.15,2013-01-18 04:17:00,
2013-01-17 22:20:00,20.5,17.2,30.45,West,268,0.0,0.0,87,0.00,,,0.00,Wunderground v.1.15,2013-01-18 04:20:00,
2013-01-17 22:21:00,20.6,17.3,30.45,West,269,0.0,0.0,87,0.00,,,0.00,Wunderground v.1.15,2013-01-18 04:21:00,
2013-01-17 22:23:00,20.7,17.4,30.44,West,268,0.0,0.0,87,0.00,,,0.00,Wunderground v.1.15,2013-01-18 04:23:00,
2013-01-17 22:26:00,20.7,17.2,30.44,West,269,0.0,0.0,86,0.00,,,0.00,Wunderground v.1.15,2013-01-18 04:26:00,
2013-01-17 22:27:00,20.7,17.2,30.44,West,269,0.0,0.0,86,0.00,,,0.00,Wunderground v.1.15,2013-01-18 04:27:00,
2013-01-17 22:28:00,20.7,17.2,30.44,West,269,0.0,0.0,86,0.00,,,0.00,Wunderground v.1.15,2013-01-18 04:28:00,
2013-01-17 22:31:00,20.7,17.2,30.44,West,269,0.0,0.0,86,0.00,,,0.00,Wunderground v.1.15,2013-01-18 04:31:00,
2013-01-17 22:34:00,20.6,17.1,30.44,West,269,0.0,0.0,86,0.00,,,0.00,Wunderground v.1.15,2013-01-18 04:34:00,
2013-01-17 22:37:00,20.5,17.0,30.44,West,269,0.0,0.0,86,0.00,,,0.00,Wunderground v.1.15,2013-01-18 04:37:00,
2013-01-17 22:38:00,20.4,16.9,30.45,West,268,0.0,0.0,86,0.00,,,0.00,Wunderground v.1.15,2013-01-18 04:38:00,
2013-01-17 22:40:00,20.4,16.9,30.45,West,269,0.0,0.0,86,0.00,,,0.00,Wunderground v.1.15,2013-01-18 04:40:00,
2013-01-17 22:44:00,20.0,16.5,30.45,West,269,0.0,0.0,86,0.00,,,0.00,Wunderground v.1.15,2013-01-18 04:44:00,
2013-01-17 22:45:00,20.0,16.5,30.45,West,269,0.0,0.0,86,0.00,,,0.00,Wunderground v.1.15,2013-01-18 04:45:00,
2013-01-17 22:46:00,19.9,16.1,30.45,West,268,0.0,0.0,85,0.00,,,0.00,Wunderground v.1.15,2013-01-18 04:46:00,
2013-01-17 22:47:00,19.9,16.4,30.45,West,269,0.0,0.0,86,0.00,,,0.00,Wunderground v.1.15,2013-01-18 04:47:00,
2013-01-17 22:50:00,19.7,16.2,30.45,West,269,0.0,0.0,86,0.00,,,0.00,Wunderground v.1.15,2013-01-18 04:50:00,
2013-01-17 22:52:00,19.6,16.1,30.45,West,268,0.0,0.0,86,0.00,,,0.00,Wunderground v.1.15,2013-01-18 04:52:00,
2013-01-17 22:54:00,19.5,16.0,30.45,West,269,0.0,0.0,86,0.00,,,0.00,Wunderground v.1.15,2013-01-18 04:54:00,
2013-01-17 22:57:00,19.5,16.0,30.45,West,268,0.0,0.0,86,0.00,,,0.00,Wunderground v.1.15,2013-01-18 04:57:00,
2013-01-17 22:58:00,19.5,16.3,30.45,West,269,0.0,0.0,87,0.00,,,0.00,Wunderground v.1.15,2013-01-18 04:58:00,
2013-01-17 23:01:00,19.5,16.3,30.45,West,269,0.0,0.0,87,0.00,,,0.00,Wunderground v.1.15,2013-01-18 05:01:00,
2013-01-17 23:04:00,19.4,15.9,30.45,West,269,0.0,0.0,86,0.00,,,0.00,Wunderground v.1.15,2013-01-18 05:04:00,
2013-01-17 23:08:00,19.2,16.0,30.46,West,269,0.0,0.0,87,0.00,,,0.00,Wunderground v.1.15,2013-01-18 05:08:00,
2013-01-17 23:09:00,19.2,16.0,30.46,West,269,0.0,0.0,87,0.00,,,0.00,Wunderground v.1.15,2013-01-18 05:09:00,
2013-01-17 23:10:00,19.1,15.9,30.46,West,269,0.0,0.0,87,0.00,,,0.00,Wunderground v.1.15,2013-01-18 05:10:00,
2013-01-17 23:14:00,18.9,15.7,30.46,West,269,0.0,0.0,87,0.00,,,0.00,Wunderground v.1.15,2013-01-18 05:14:00,
2013-01-17 23:15:00,18.8,15.6,30.46,West,269,0.0,0.0,87,0.00,,,0.00,Wunderground v.1.15,2013-01-18 05:15:00,
2013-01-17 23:17:00,18.6,15.4,30.46,West,269,0.0,0.0,87,0.00,,,0.00,Wunderground v.1.15,2013-01-18 05:17:00,
2013-01-17 23:18:00,18.6,15.4,30.46,West,269,0.0,0.0,87,0.00,,,0.00,Wunderground v.1.15,2013-01-18 05:18:00,
2013-01-17 23:21:00,18.5,15.3,30.46,West,269,0.0,0.0,87,0.00,,,0.00,Wunderground v.1.15,2013-01-18 05:21:00,
2013-01-17 23:22:00,18.5,15.5,30.46,West,269,0.0,0.0,88,0.00,,,0.00,Wunderground v.1.15,2013-01-18 05:22:00,
2013-01-17 23:23:00,18.5,15.5,30.46,West,269,0.0,0.0,88,0.00,,,0.00,Wunderground v.1.15,2013-01-18 05:23:00,
2013-01-17 23:26:00,18.5,15.5,30.46,West,269,0.0,0.0,88,0.00,,,0.00,Wunderground v.1.15,2013-01-18 05:26:00,
2013-01-17 23:27:00,18.5,15.5,30.46,West,269,0.0,0.0,88,0.00,,,0.00,Wunderground v.1.15,2013-01-18 05:27:00,
2013-01-17 23:30:00,18.4,15.4,30.46,West,269,0.0,0.0,88,0.00,,,0.00,Wunderground v.1.15,2013-01-18 05:30:00,
2013-01-17 23:31:00,18.3,15.3,30.46,West,269,0.0,0.0,88,0.00,,,0.00,Wunderground v.1.15,2013-01-18 05:31:00,
2013-01-17 23:32:00,18.3,15.3,30.46,West,269,0.0,0.0,88,0.00,,,0.00,Wunderground v.1.15,2013-01-18 05:32:00,
2013-01-17 23:36:00,18.5,15.8,30.46,West,269,0.0,0.0,89,0.00,,,0.00,Wunderground v.1.15,2013-01-18 05:36:00,
2013-01-17 23:37:00,18.5,15.8,30.46,West,269,0.0,0.0,89,0.00,,,0.00,Wunderground v.1.15,2013-01-18 05:37:00,
2013-01-17 23:38:00,18.6,16.2,30.46,West,269,0.0,0.0,90,0.00,,,0.00,Wunderground v.1.15,2013-01-18 05:38:00,
2013-01-17 23:41:00,18.6,16.2,30.46,West,268,0.0,0.0,90,0.00,,,0.00,Wunderground v.1.15,2013-01-18 05:41:00,
2013-01-17 23:42:00,18.7,16.3,30.46,West,269,0.0,0.0,90,0.00,,,0.00,Wunderground v.1.15,2013-01-18 05:42:00,
2013-01-17 23:44:00,18.6,15.9,30.46,West,269,0.0,0.0,89,0.00,,,0.00,Wunderground v.1.15,2013-01-18 05:44:00,
2013-01-17 23:45:00,18.6,15.9,30.46,West,269,0.0,0.0,89,0.00,,,0.00,Wunderground v.1.15,2013-01-18 05:45:00,
2013-01-17 23:47:00,18.6,15.9,30.46,West,269,0.0,0.0,89,0.00,,,0.00,Wunderground v.1.15,2013-01-18 05:47:00,
2013-01-17 23:49:00,18.6,15.9,30.46,West,269,0.0,0.0,89,0.00,,,0.00,Wunderground v.1.15,2013-01-18 05:49:00,
2013-01-17 23:50:00,18.7,16.0,30.47,West,269,0.0,0.0,89,0.00,,,0.00,Wunderground v.1.15,2013-01-18 05:50:00,
2013-01-17 23:54:00,18.6,15.9,30.47,West,269,0.0,0.0,89,0.00,,,0.00,Wunderground v.1.15,2013-01-18 05:54:00,
2013-01-17 23:55:00,18.6,15.9,30.47,West,269,0.0,0.0,89,0.00,,,0.00,Wunderground v.1.15,2013-01-18 05:55:00,
2013-01-17 23:57:00,18.6,15.9,30.47,West,268,0.0,0.0,89,0.00,,,0.00,Wunderground v.1.15,2013-01-18 05:57:00,